Time,TemperatureF,DewpointF,PressureIn,WindDirection,WindDirectionDegrees,WindSpeedMPH,WindSpeedGustMPH,Humidity,HourlyPrecipIn,Conditions,Clouds,dailyrainin,SoftwareType,DateUTC
2013-01-03 00:00:00,2.6,-6.2,30.24,NNE,32,5.1,10.4,66,0.00,CLR,OVC,0.00,WeatherDisplay:10.37,2013-01-03 05:00:00,
2013-01-03 00:03:00,2.5,-6.0,30.24,ENE,58,5.5,8.1,67,0.00,CLR,OVC,0.00,WeatherDisplay:10.37,2013-01-03 05:03:00,
2013-01-03 00:05:00,2.5,-6.3,30.24,NE,38,4.1,5.8,66,0.00,CLR,OVC,0.00,WeatherDisplay:10.37,2013-01-03 05:05:00,
2013-01-03 00:08:00,2.5,-6.3,30.24,ENE,61,4.9,9.2,66,0.00,CLR,OVC,0.00,WeatherDisplay:10.37,2013-01-03 05:08:00,
2013-01-03 00:10:00,2.5,-6.0,30.24,NE,47,6.8,9.2,67,0.00,CLR,OVC,0.00,WeatherDisplay:10.37,2013-01-03 05:10:00,
2013-01-03 00:13:00,2.4,-6.4,30.24,NE,40,5.0,7.0,66,0.00,CLR,OVC,0.00,WeatherDisplay:10.37,2013-01-03 05:13:00,
2013-01-03 00:16:00,2.3,-6.5,30.24,NNE,27,7.5,10.4,66,0.00,CLR,OVC,0.00,WeatherDisplay:10.37,2013-01-03 05:16:00,
2013-01-03 00:18:00,2.3,-6.5,30.24,NE,52,6.3,6.3,66,0.00,CLR,OVC,0.00,WeatherDisplay:10.37,2013-01-03 05:18:00,
2013-01-03 00:21:00,2.2,-6.6,30.24,NE,45,6.0,8.1,66,0.00,CLR,OVC,0.00,WeatherDisplay:10.37,2013-01-03 05:21:00,
2013-01-03 00:23:00,2.1,-6.7,30.24,ENE,76,5.8,9.2,66,0.00,CLR,OVC,0.00,WeatherDisplay:10.37,2013-01-03 05:23:00,
2013-01-03 00:24:00,2.1,-6.7,30.24,ENE,76,5.4,8.1,66,0.00,CLR,OVC,0.00,WeatherDisplay:10.37,2013-01-03 05:24:00,
2013-01-03 00:26:00,2.1,-6.7,30.24,ENE,61,7.6,11.5,66,0.00,CLR,OVC,0.00,WeatherDisplay:10.37,2013-01-03 05:26:00,
2013-01-03 00:28:00,2.0,-6.8,30.24,NNE,24,4.3,6.9,66,0.00,CLR,OVC,0.00,WeatherDisplay:10.37,2013-01-03 05:28:00,
2013-01-03 00:29:00,2.0,-6.8,30.24,NNE,24,3.7,7.0,66,0.00,CLR,OVC,0.00,WeatherDisplay:10.37,2013-01-03 05:29:00,
2013-01-03 00:31:00,1.9,-6.9,30.23,NE,46,6.6,9.2,66,0.00,CLR,OVC,0.00,WeatherDisplay:10.37,2013-01-03 05:31:00,
2013-01-03 00:34:00,1.8,-7.0,30.23,NE,50,6.1,8.1,66,0.00,CLR,OVC,0.00,WeatherDisplay:10.37,2013-01-03 05:34:00,
2013-01-03 00:36:00,1.7,-7.0,30.23,NNE,30,5.3,9.2,66,0.00,CLR,OVC,0.00,WeatherDisplay:10.37,2013-01-03 05:36:00,
2013-01-03 00:39:00,1.7,-7.0,30.23,NE,46,5.9,11.5,66,0.00,CLR,OVC,0.00,WeatherDisplay:10.37,2013-01-03 05:39:00,
2013-01-03 00:41:00,1.5,-7.2,30.23,NNE,22,4.5,5.8,66,0.00,CLR,OVC,0.00,WeatherDisplay:10.37,2013-01-03 05:41:00,
2013-01-03 00:44:00,1.5,-7.2,30.24,East,90,3.3,8.1,66,0.00,CLR,OVC,0.00,WeatherDisplay:10.37,2013-01-03 05:44:00,
2013-01-03 00:45:00,1.4,-7.3,30.24,East,90,1.7,4.0,66,0.00,CLR,OVC,0.00,WeatherDisplay:10.37,2013-01-03 05:45:00,
2013-01-03 00:46:00,1.4,-7.3,30.24,East,80,3.2,3.5,66,0.00,CLR,OVC,0.00,WeatherDisplay:10.37,2013-01-03 05:46:00,
2013-01-03 00:49:00,1.3,-7.4,30.24,ENE,60,3.9,6.9,66,0.00,CLR,OVC,0.00,WeatherDisplay:10.37,2013-01-03 05:49:00,
2013-01-03 00:50:00,1.3,-7.4,30.24,ENE,57,3.5,5.8,66,0.00,CLR,OVC,0.00,WeatherDisplay:10.37,2013-01-03 05:50:00,
2013-01-03 00:52:00,1.4,-7.3,30.24,ENE,57,2.0,4.0,66,0.00,CLR,OVC,0.00,WeatherDisplay:10.37,2013-01-03 05:52:00,
2013-01-03 00:54:00,1.3,-7.4,30.24,NE,51,4.5,8.1,66,0.00,CLR,OVC,0.00,WeatherDisplay:10.37,2013-01-03 05:54:00,
2013-01-03 00:55:00,1.3,-7.4,30.24,NE,52,2.9,6.9,66,0.00,CLR,OVC,0.00,WeatherDisplay:10.37,2013-01-03 05:55:00,
2013-01-03 00:57:00,1.4,-7.3,30.24,ENE,62,5.1,6.9,66,0.00,CLR,OVC,0.00,WeatherDisplay:10.37,2013-01-03 05:57:00,
2013-01-03 00:59:00,1.3,-7.4,30.24,ENE,61,2.2,4.6,66,0.00,CLR,OVC,0.00,WeatherDisplay:10.37,2013-01-03 05:59:00,
2013-01-03 01:00:00,1.4,-7.3,30.24,NE,39,4.2,6.0,66,0.00,CLR,OVC,0.00,WeatherDisplay:10.37,2013-01-03 06:00:00,
2013-01-03 01:02:00,1.5,-7.2,30.24,NE,45,1.8,5.8,66,0.00,CLR,OVC,0.00,WeatherDisplay:10.37,2013-01-03 06:02:00,
2013-01-03 01:04:00,1.4,-7.3,30.24,ENE,61,3.4,8.1,66,0.00,CLR,OVC,0.00,WeatherDisplay:10.37,2013-01-03 06:04:00,
2013-01-03 01:05:00,1.4,-7.3,30.25,ENE,61,1.8,4.6,66,0.00,CLR,OVC,0.00,WeatherDisplay:10.37,2013-01-03 06:05:00,
2013-01-03 01:07:00,1.5,-7.2,30.25,NE,38,4.1,5.8,66,0.00,CLR,OVC,0.00,WeatherDisplay:10.37,2013-01-03 06:07:00,
2013-01-03 01:09:00,1.6,-6.8,30.25,ENE,66,3.5,6.9,67,0.00,CLR,OVC,0.00,WeatherDisplay:10.37,2013-01-03 06:09:00,
2013-01-03 01:10:00,1.6,-6.8,30.25,ENE,62,3.2,6.0,67,0.00,CLR,OVC,0.00,WeatherDisplay:10.37,2013-01-03 06:10:00,
2013-01-03 01:12:00,1.6,-7.1,30.25,North,10,3.8,9.2,66,0.00,CLR,OVC,0.00,WeatherDisplay:10.37,2013-01-03 06:12:00,
2013-01-03 01:14:00,1.7,-7.0,30.25,North,10,3.4,4.6,66,0.00,CLR,OVC,0.00,WeatherDisplay:10.37,2013-01-03 06:14:00,
2013-01-03 01:15:00,1.6,-7.1,30.25,North,10,3.0,5.8,66,0.00,CLR,OVC,0.00,WeatherDisplay:10.37,2013-01-03 06:15:00,
2013-01-03 01:17:00,1.7,-7.0,30.25,ENE,61,4.7,5.0,66,0.00,CLR,OVC,0.00,WeatherDisplay:10.37,2013-01-03 06:17:00,
2013-01-03 01:19:00,1.7,-7.0,30.25,NE,46,3.7,4.6,66,0.00,CLR,OVC,0.00,WeatherDisplay:10.37,2013-01-03 06:19:00,
2013-01-03 01:21:00,1.6,-7.1,30.25,NE,46,2.4,3.5,66,0.00,CLR,OVC,0.00,WeatherDisplay:10.37,2013-01-03 06:21:00,
2013-01-03 01:22:00,1.7,-7.0,30.25,NE,46,2.4,3.5,66,0.00,CLR,OVC,0.00,WeatherDisplay:10.37,2013-01-03 06:22:00,
2013-01-03 01:24:00,1.7,-7.0,30.25,NE,44,2.2,4.6,66,0.00,CLR,OVC,0.00,WeatherDisplay:10.37,2013-01-03 06:24:00,
2013-01-03 01:25:00,1.6,-7.1,30.25,NE,44,1.4,4.6,66,0.00,CLR,OVC,0.00,WeatherDisplay:10.37,2013-01-03 06:25:00,
2013-01-03 01:26:00,1.7,-7.0,30.25,NE,44,2.0,3.5,66,0.00,CLR,OVC,0.00,WeatherDisplay:10.37,2013-01-03 06:26:00,
2013-01-03 01:28:00,1.7,-7.0,30.25,NE,39,3.6,4.6,66,0.00,CLR,OVC,0.00,WeatherDisplay:10.37,2013-01-03 06:28:00,
2013-01-03 01:29:00,1.8,-7.0,30.25,NE,35,3.3,4.6,66,0.00,CLR,OVC,0.00,WeatherDisplay:10.37,2013-01-03 06:29:00,
2013-01-03 01:30:00,1.8,-7.0,30.25,NE,35,3.1,4.6,66,0.00,CLR,OVC,0.00,WeatherDisplay:10.37,2013-01-03 06:30:00,
2013-01-03 01:31:00,1.8,-7.0,30.25,NE,34,2.6,4.6,66,0.00,CLR,OVC,0.00,WeatherDisplay:10.37,2013-01-03 06:31:00,
2013-01-03 01:33:00,1.9,-6.9,30.25,North,4,3.1,5.8,66,0.00,CLR,OVC,0.00,WeatherDisplay:10.37,2013-01-03 06:33:00,
2013-01-03 01:35:00,1.9,-6.9,30.25,North,4,3.3,4.6,66,0.00,CLR,OVC,0.00,WeatherDisplay:10.37,2013-01-03 06:35:00,
2013-01-03 01:36:00,2.0,-6.8,30.25,North,4,4.2,5.0,66,0.00,CLR,OVC,0.00,WeatherDisplay:10.37,2013-01-03 06:36:00,
2013-01-03 01:38:00,1.9,-6.9,30.25,North,4,3.2,5.8,66,0.00,CLR,OVC,0.00,WeatherDisplay:10.37,2013-01-03 06:38:00,
2013-01-03 01:40:00,1.9,-6.9,30.25,North,4,3.4,3.5,66,0.00,CLR,OVC,0.00,WeatherDisplay:10.37,2013-01-03 06:40:00,
2013-01-03 01:41:00,1.9,-6.9,30.25,North,4,3.2,3.5,66,0.00,CLR,OVC,0.00,WeatherDisplay:10.37,2013-01-03 06:41:00,
2013-01-03 01:43:00,1.7,-7.4,30.25,North,4,3.0,3.5,65,0.00,CLR,OVC,0.00,WeatherDisplay:10.37,2013-01-03 06:43:00,
2013-01-03 01:45:00,1.6,-7.5,30.25,North,4,2.9,3.5,65,0.00,CLR,OVC,0.00,WeatherDisplay:10.37,2013-01-03 06:45:00,
2013-01-03 01:46:00,1.6,-7.1,30.25,North,4,2.9,4.6,66,0.00,CLR,OVC,0.00,WeatherDisplay:10.37,2013-01-03 06:46:00,
2013-01-03 01:48:00,1.5,-7.2,30.25,North,4,2.0,3.5,66,0.00,CLR,OVC,0.00,WeatherDisplay:10.37,2013-01-03 06:48:00,
2013-01-03 01:50:00,1.5,-7.6,30.25,North,4,2.3,3.5,65,0.00,CLR,OVC,0.00,WeatherDisplay:10.37,2013-01-03 06:50:00,
2013-01-03 01:51:00,1.3,-7.4,30.25,North,4,1.3,3.5,66,0.00,CLR,OVC,0.00,WeatherDisplay:10.37,2013-01-03 06:51:00,
2013-01-03 01:53:00,1.3,-7.4,30.25,North,4,1.3,2.3,66,0.00,CLR,OVC,0.00,WeatherDisplay:10.37,2013-01-03 06:53:00,
2013-01-03 01:55:00,1.2,-7.8,30.25,North,4,1.3,2.3,65,0.00,CLR,OVC,0.00,WeatherDisplay:10.37,2013-01-03 06:55:00,
2013-01-03 01:56:00,1.1,-7.9,30.25,North,4,0.7,2.3,65,0.00,CLR,OVC,0.00,WeatherDisplay:10.37,2013-01-03 06:56:00,
2013-01-03 01:58:00,1.0,-8.0,30.25,North,4,0.8,1.2,65,0.00,CLR,OVC,0.00,WeatherDisplay:10.37,2013-01-03 06:58:00,
2013-01-03 02:00:00,0.9,-8.1,30.26,North,4,0.5,2.3,65,0.00,CLR,OVC,0.00,WeatherDisplay:10.37,2013-01-03 07:00:00,
2013-01-03 02:01:00,0.8,-8.2,30.26,North,4,0.5,1.2,65,0.00,CLR,OVC,0.00,WeatherDisplay:10.37,2013-01-03 07:01:00,
2013-01-03 02:03:00,0.6,-8.4,30.26,North,4,1.2,2.3,65,0.00,CLR,OVC,0.00,WeatherDisplay:10.37,2013-01-03 07:03:00,
2013-01-03 02:05:00,0.4,-8.6,30.26,North,4,0.2,2.0,65,0.00,CLR,OVC,0.00,WeatherDisplay:10.37,2013-01-03 07:05:00,
2013-01-03 02:06:00,0.2,-8.8,30.26,North,4,1.8,3.5,65,0.00,CLR,OVC,0.00,WeatherDisplay:10.37,2013-01-03 07:06:00,
2013-01-03 02:08:00,0.1,-8.9,30.25,North,4,0.8,2.3,65,0.00,CLR,OVC,0.00,WeatherDisplay:10.37,2013-01-03 07:08:00,
2013-01-03 02:10:00,0.0,-9.0,30.25,North,4,0.9,2.3,65,0.00,CLR,OVC,0.00,WeatherDisplay:10.37,2013-01-03 07:10:00,
2013-01-03 02:12:00,-0.1,-9.1,30.25,North,4,0.9,2.3,65,0.00,CLR,OVC,0.00,WeatherDisplay:10.37,2013-01-03 07:12:00,
2013-01-03 02:13:00,-0.2,-9.2,30.25,North,4,0.2,1.2,65,0.00,CLR,OVC,0.00,WeatherDisplay:10.37,2013-01-03 07:13:00,
2013-01-03 02:15:00,-0.3,-9.3,30.26,North,4,0.9,2.3,65,0.00,CLR,OVC,0.00,WeatherDisplay:10.37,2013-01-03 07:15:00,
2013-01-03 02:17:00,-0.4,-9.1,30.25,North,4,1.2,2.3,66,0.00,CLR,OVC,0.00,WeatherDisplay:10.37,2013-01-03 07:17:00,
2013-01-03 02:18:00,-0.5,-9.5,30.25,North,4,0.3,1.2,65,0.00,CLR,OVC,0.00,WeatherDisplay:10.37,2013-01-03 07:18:00,
2013-01-03 02:20:00,-0.6,-9.3,30.25,North,4,0.2,1.2,66,0.00,CLR,OVC,0.00,WeatherDisplay:10.37,2013-01-03 07:20:00,
2013-01-03 02:22:00,-0.7,-9.3,30.25,North,4,0.8,1.2,66,0.00,CLR,OVC,0.00,WeatherDisplay:10.37,2013-01-03 07:22:00,
2013-01-03 02:23:00,-0.7,-9.3,30.25,North,4,1.0,2.3,66,0.00,CLR,OVC,0.00,WeatherDisplay:10.37,2013-01-03 07:23:00,
2013-01-03 02:25:00,-0.7,-9.3,30.25,North,4,0.7,1.2,66,0.00,CLR,OVC,0.00,WeatherDisplay:10.37,2013-01-03 07:25:00,
2013-01-03 02:26:00,-0.7,-9.3,30.25,North,4,0.3,1.2,66,0.00,CLR,OVC,0.00,WeatherDisplay:10.37,2013-01-03 07:26:00,
2013-01-03 02:27:00,-0.7,-9.3,30.25,North,4,0.1,1.2,66,0.00,CLR,OVC,0.00,WeatherDisplay:10.37,2013-01-03 07:27:00,
2013-01-03 02:28:00,-0.7,-9.3,30.25,North,4,0.0,0.0,66,0.00,CLR,OVC,0.00,WeatherDisplay:10.37,2013-01-03 07:28:00,
2013-01-03 02:30:00,-0.6,-9.3,30.25,North,4,0.7,2.3,66,0.00,CLR,OVC,0.00,WeatherDisplay:10.37,2013-01-03 07:30:00,
2013-01-03 02:31:00,-0.6,-9.3,30.25,North,4,1.2,2.3,66,0.00,CLR,OVC,0.00,WeatherDisplay:10.37,2013-01-03 07:31:00,
2013-01-03 02:32:00,-0.7,-9.3,30.25,North,4,0.8,2.3,66,0.00,CLR,OVC,0.00,WeatherDisplay:10.37,2013-01-03 07:32:00,
2013-01-03 02:33:00,-0.7,-9.0,30.25,North,4,0.1,1.2,67,0.00,CLR,OVC,0.00,WeatherDisplay:10.37,2013-01-03 07:33:00,
2013-01-03 02:35:00,-0.6,-9.3,30.25,North,4,0.0,0.0,66,0.00,CLR,OVC,0.00,WeatherDisplay:10.37,2013-01-03 07:35:00,
2013-01-03 02:36:00,-0.7,-9.3,30.25,North,4,0.2,1.0,66,0.00,CLR,OVC,0.00,WeatherDisplay:10.37,2013-01-03 07:36:00,
2013-01-03 02:37:00,-0.6,-8.9,30.25,North,4,0.8,2.0,67,0.00,CLR,OVC,0.00,WeatherDisplay:10.37,2013-01-03 07:37:00,
2013-01-03 02:38:00,-0.7,-9.0,30.25,North,4,1.4,2.3,67,0.00,CLR,OVC,0.00,WeatherDisplay:10.37,2013-01-03 07:38:00,
2013-01-03 02:40:00,-0.7,-9.0,30.25,North,4,1.7,3.0,67,0.00,CLR,OVC,0.00,WeatherDisplay:10.37,2013-01-03 07:40:00,
2013-01-03 02:42:00,-0.7,-9.0,30.25,North,4,1.9,3.5,67,0.00,CLR,OVC,0.00,WeatherDisplay:10.37,2013-01-03 07:42:00,
2013-01-03 02:43:00,-0.7,-9.0,30.25,North,4,1.8,3.5,67,0.00,CLR,OVC,0.00,WeatherDisplay:10.37,2013-01-03 07:43:00,
2013-01-03 02:44:00,-0.7,-9.0,30.25,North,4,1.7,3.5,67,0.00,CLR,OVC,0.00,WeatherDisplay:10.37,2013-01-03 07:44:00,
2013-01-03 02:45:00,-0.7,-9.0,30.25,North,4,1.5,2.3,67,0.00,CLR,OVC,0.00,WeatherDisplay:10.37,2013-01-03 07:45:00,
2013-01-03 02:47:00,-0.8,-9.1,30.25,North,4,1.3,2.3,67,0.00,CLR,OVC,0.00,WeatherDisplay:10.37,2013-01-03 07:47:00,
2013-01-03 02:48:00,-0.8,-9.1,30.25,North,4,1.5,2.3,67,0.00,CLR,OVC,0.00,WeatherDisplay:10.37,2013-01-03 07:48:00,
2013-01-03 02:49:00,-0.8,-9.1,30.25,North,4,1.6,2.3,67,0.00,CLR,OVC,0.00,WeatherDisplay:10.37,2013-01-03 07:49:00,
2013-01-03 02:50:00,-0.8,-9.1,30.25,North,4,1.6,2.3,67,0.00,CLR,OVC,0.00,WeatherDisplay:10.37,2013-01-03 07:50:00,
2013-01-03 02:52:00,-0.8,-9.1,30.25,North,4,1.3,2.3,67,0.00,CLR,OVC,0.00,WeatherDisplay:10.37,2013-01-03 07:52:00,
2013-01-03 02:53:00,-0.7,-9.0,30.25,North,4,1.6,2.3,67,0.00,CLR,OVC,0.00,WeatherDisplay:10.37,2013-01-03 07:53:00,
2013-01-03 02:54:00,-0.8,-9.1,30.25,North,4,2.4,3.5,67,0.00,CLR,OVC,0.00,WeatherDisplay:10.37,2013-01-03 07:54:00,
2013-01-03 02:55:00,-0.8,-9.1,30.25,North,4,1.9,3.5,67,0.00,CLR,OVC,0.00,WeatherDisplay:10.37,2013-01-03 07:55:00,
2013-01-03 02:57:00,-0.8,-9.1,30.25,North,4,1.2,2.3,67,0.00,CLR,OVC,0.00,WeatherDisplay:10.37,2013-01-03 07:57:00,
2013-01-03 02:58:00,-0.8,-8.8,30.25,North,4,1.1,2.3,68,0.00,CLR,OVC,0.00,WeatherDisplay:10.37,2013-01-03 07:58:00,
2013-01-03 02:59:00,-0.8,-8.8,30.24,North,4,1.1,2.3,68,0.00,CLR,OVC,0.00,WeatherDisplay:10.37,2013-01-03 07:59:00,
2013-01-03 03:00:00,-0.7,-8.7,30.25,North,4,1.1,2.3,68,0.00,CLR,OVC,0.00,WeatherDisplay:10.37,2013-01-03 08:00:00,
2013-01-03 03:03:00,-0.7,-8.7,30.24,North,4,1.2,2.3,68,0.00,CLR,OVC,0.00,WeatherDisplay:10.37,2013-01-03 08:03:00,
2013-01-03 03:04:00,-0.7,-8.7,30.24,North,4,1.3,2.3,68,0.00,CLR,OVC,0.00,WeatherDisplay:10.37,2013-01-03 08:04:00,
2013-01-03 03:05:00,-0.7,-8.7,30.25,North,4,1.6,2.3,68,0.00,CLR,OVC,0.00,WeatherDisplay:10.37,2013-01-03 08:05:00,
2013-01-03 03:08:00,-0.7,-8.7,30.24,North,4,1.7,2.3,68,0.00,CLR,OVC,0.00,WeatherDisplay:10.37,2013-01-03 08:08:00,
2013-01-03 03:09:00,-0.7,-8.7,30.24,North,4,1.8,2.3,68,0.00,CLR,OVC,0.00,WeatherDisplay:10.37,2013-01-03 08:09:00,
2013-01-03 03:10:00,-0.6,-8.6,30.24,North,4,1.8,2.3,68,0.00,CLR,OVC,0.00,WeatherDisplay:10.37,2013-01-03 08:10:00,
2013-01-03 03:13:00,-0.7,-8.7,30.24,North,4,1.3,2.3,68,0.00,CLR,OVC,0.00,WeatherDisplay:10.37,2013-01-03 08:13:00,
2013-01-03 03:14:00,-0.7,-8.7,30.24,North,4,1.8,2.3,68,0.00,CLR,OVC,0.00,WeatherDisplay:10.37,2013-01-03 08:14:00,
2013-01-03 03:15:00,-0.6,-8.6,30.24,North,4,1.8,2.3,68,0.00,CLR,OVC,0.00,WeatherDisplay:10.37,2013-01-03 08:15:00,
2013-01-03 03:18:00,-0.7,-8.7,30.24,North,4,0.5,2.3,68,0.00,CLR,OVC,0.00,WeatherDisplay:10.37,2013-01-03 08:18:00,
2013-01-03 03:19:00,-0.6,-8.3,30.24,North,4,0.0,1.2,69,0.00,CLR,OVC,0.00,WeatherDisplay:10.37,2013-01-03 08:19:00,
2013-01-03 03:20:00,-0.7,-8.7,30.24,North,4,0.0,0.0,68,0.00,CLR,OVC,0.00,WeatherDisplay:10.37,2013-01-03 08:20:00,
2013-01-03 03:21:00,-0.6,-8.6,30.24,North,4,0.0,0.0,68,0.00,CLR,OVC,0.00,WeatherDisplay:10.37,2013-01-03 08:21:00,
2013-01-03 03:23:00,-0.7,-8.7,30.24,North,4,0.2,2.3,68,0.00,CLR,OVC,0.00,WeatherDisplay:10.37,2013-01-03 08:23:00,
2013-01-03 03:24:00,-0.6,-8.6,30.24,North,4,0.3,1.2,68,0.00,CLR,OVC,0.00,WeatherDisplay:10.37,2013-01-03 08:24:00,
2013-01-03 03:26:00,-0.6,-8.3,30.23,North,4,0.0,0.0,69,0.00,CLR,OVC,0.00,WeatherDisplay:10.37,2013-01-03 08:26:00,
2013-01-03 03:28:00,-0.8,-8.8,30.24,North,4,2.0,2.3,68,0.00,CLR,OVC,0.00,WeatherDisplay:10.37,2013-01-03 08:28:00,
2013-01-03 03:29:00,-0.9,-8.9,30.23,North,4,2.1,3.5,68,0.00,CLR,OVC,0.00,WeatherDisplay:10.37,2013-01-03 08:29:00,
2013-01-03 03:31:00,-1.0,-9.0,30.24,North,4,1.6,3.5,68,0.00,CLR,OVC,0.00,WeatherDisplay:10.37,2013-01-03 08:31:00,
2013-01-03 03:32:00,-1.1,-9.1,30.24,North,4,1.1,2.3,68,0.00,CLR,OVC,0.00,WeatherDisplay:10.37,2013-01-03 08:32:00,
2013-01-03 03:34:00,-1.3,-9.3,30.23,North,4,1.3,2.3,68,0.00,CLR,OVC,0.00,WeatherDisplay:10.37,2013-01-03 08:34:00,
2013-01-03 03:35:00,-1.3,-9.3,30.24,North,4,1.4,2.3,68,0.00,CLR,OVC,0.00,WeatherDisplay:10.37,2013-01-03 08:35:00,
2013-01-03 03:36:00,-1.5,-9.5,30.23,North,4,1.8,2.3,68,0.00,CLR,OVC,0.00,WeatherDisplay:10.37,2013-01-03 08:36:00,
2013-01-03 03:37:00,-1.6,-9.6,30.24,North,4,1.9,2.3,68,0.00,CLR,OVC,0.00,WeatherDisplay:10.37,2013-01-03 08:37:00,
2013-01-03 03:39:00,-1.7,-9.7,30.23,North,4,2.4,3.5,68,0.00,CLR,OVC,0.00,WeatherDisplay:10.37,2013-01-03 08:39:00,
2013-01-03 03:40:00,-1.7,-9.7,30.23,North,4,2.3,3.5,68,0.00,CLR,OVC,0.00,WeatherDisplay:10.37,2013-01-03 08:40:00,
2013-01-03 03:41:00,-1.8,-9.8,30.23,North,4,2.6,3.5,68,0.00,CLR,OVC,0.00,WeatherDisplay:10.37,2013-01-03 08:41:00,
2013-01-03 03:42:00,-1.9,-9.9,30.23,North,4,2.0,3.5,68,0.00,CLR,OVC,0.00,WeatherDisplay:10.37,2013-01-03 08:42:00,
2013-01-03 03:44:00,-2.0,-10.0,30.23,North,4,1.7,2.3,68,0.00,CLR,OVC,0.00,WeatherDisplay:10.37,2013-01-03 08:44:00,
2013-01-03 03:45:00,-2.1,-10.1,30.23,North,4,1.1,2.3,68,0.00,CLR,OVC,0.00,WeatherDisplay:10.37,2013-01-03 08:45:00,
2013-01-03 03:46:00,-2.1,-10.1,30.23,North,4,0.7,1.2,68,0.00,CLR,OVC,0.00,WeatherDisplay:10.37,2013-01-03 08:46:00,
2013-01-03 03:47:00,-2.1,-9.8,30.22,North,4,0.9,1.2,69,0.00,CLR,OVC,0.00,WeatherDisplay:10.37,2013-01-03 08:47:00,
2013-01-03 03:49:00,-2.1,-9.8,30.22,North,4,1.6,2.3,69,0.00,CLR,OVC,0.00,WeatherDisplay:10.37,2013-01-03 08:49:00,
2013-01-03 03:50:00,-2.2,-9.9,30.22,North,4,1.8,2.3,69,0.00,CLR,OVC,0.00,WeatherDisplay:10.37,2013-01-03 08:50:00,
2013-01-03 03:51:00,-2.2,-9.9,30.22,North,4,1.7,3.5,69,0.00,CLR,OVC,0.00,WeatherDisplay:10.37,2013-01-03 08:51:00,
2013-01-03 03:53:00,-2.1,-9.8,30.22,North,4,1.6,2.3,69,0.00,CLR,OVC,0.00,WeatherDisplay:10.37,2013-01-03 08:53:00,
2013-01-03 03:54:00,-2.1,-9.8,30.22,North,4,1.8,2.3,69,0.00,CLR,OVC,0.00,WeatherDisplay:10.37,2013-01-03 08:54:00,
2013-01-03 03:55:00,-2.0,-9.7,30.21,North,4,2.2,3.5,69,0.00,CLR,OVC,0.00,WeatherDisplay:10.37,2013-01-03 08:55:00,
2013-01-03 03:56:00,-2.1,-9.8,30.21,North,4,1.6,3.5,69,0.00,CLR,OVC,0.00,WeatherDisplay:10.37,2013-01-03 08:56:00,
2013-01-03 03:58:00,-2.0,-9.7,30.21,North,4,1.4,2.3,69,0.00,CLR,OVC,0.00,WeatherDisplay:10.37,2013-01-03 08:58:00,
2013-01-03 03:59:00,-2.0,-9.7,30.21,North,4,0.1,2.3,69,0.00,CLR,OVC,0.00,WeatherDisplay:10.37,2013-01-03 08:59:00,
2013-01-03 04:00:00,-1.9,-9.3,30.22,North,4,0.0,0.0,70,0.00,CLR,OVC,0.00,WeatherDisplay:10.37,2013-01-03 09:00:00,
2013-01-03 04:01:00,-1.9,-9.3,30.22,North,4,0.9,2.3,70,0.00,CLR,OVC,0.00,WeatherDisplay:10.37,2013-01-03 09:01:00,
2013-01-03 04:03:00,-1.8,-9.2,30.22,North,4,1.7,2.3,70,0.00,CLR,OVC,0.00,WeatherDisplay:10.37,2013-01-03 09:03:00,
2013-01-03 04:04:00,-1.8,-9.2,30.21,North,4,1.5,2.3,70,0.00,CLR,OVC,0.00,WeatherDisplay:10.37,2013-01-03 09:04:00,
2013-01-03 04:05:00,-1.8,-9.2,30.21,North,4,1.6,2.3,70,0.00,CLR,OVC,0.00,WeatherDisplay:10.37,2013-01-03 09:05:00,
2013-01-03 04:06:00,-1.8,-9.2,30.22,North,4,1.2,2.3,70,0.00,CLR,OVC,0.00,WeatherDisplay:10.37,2013-01-03 09:06:00,
2013-01-03 04:08:00,-1.9,-9.6,30.22,North,4,0.8,2.3,69,0.00,CLR,OVC,0.00,WeatherDisplay:10.37,2013-01-03 09:08:00,
2013-01-03 04:10:00,-2.0,-9.4,30.22,North,4,0.5,1.2,70,0.00,CLR,OVC,0.00,WeatherDisplay:10.37,2013-01-03 09:10:00,
2013-01-03 04:11:00,-2.1,-9.5,30.22,North,4,1.8,2.3,70,0.00,CLR,OVC,0.00,WeatherDisplay:10.37,2013-01-03 09:11:00,
2013-01-03 04:13:00,-2.2,-9.9,30.22,North,4,1.8,3.5,69,0.00,CLR,OVC,0.00,WeatherDisplay:10.37,2013-01-03 09:13:00,
2013-01-03 04:15:00,-2.2,-9.9,30.22,North,4,1.2,2.3,69,0.00,CLR,OVC,0.00,WeatherDisplay:10.37,2013-01-03 09:15:00,
2013-01-03 04:16:00,-2.3,-10.0,30.22,North,4,1.7,3.5,69,0.00,CLR,OVC,0.00,WeatherDisplay:10.37,2013-01-03 09:16:00,
2013-01-03 04:18:00,-2.6,-10.3,30.22,North,4,1.0,2.3,69,0.00,CLR,OVC,0.00,WeatherDisplay:10.37,2013-01-03 09:18:00,
2013-01-03 04:20:00,-2.7,-10.4,30.22,North,4,1.1,2.3,69,0.00,CLR,OVC,0.00,WeatherDisplay:10.37,2013-01-03 09:20:00,
2013-01-03 04:21:00,-2.8,-10.2,30.22,North,4,2.0,3.0,70,0.00,CLR,OVC,0.00,WeatherDisplay:10.37,2013-01-03 09:21:00,
2013-01-03 04:23:00,-2.8,-10.2,30.22,North,4,2.0,3.5,70,0.00,CLR,OVC,0.00,WeatherDisplay:10.37,2013-01-03 09:23:00,
2013-01-03 04:25:00,-2.7,-10.1,30.22,North,4,1.8,2.3,70,0.00,CLR,OVC,0.00,WeatherDisplay:10.37,2013-01-03 09:25:00,
2013-01-03 04:26:00,-2.7,-10.1,30.22,North,4,1.5,2.3,70,0.00,CLR,OVC,0.00,WeatherDisplay:10.37,2013-01-03 09:26:00,
2013-01-03 04:28:00,-2.7,-10.1,30.22,North,4,2.1,3.5,70,0.00,CLR,OVC,0.00,WeatherDisplay:10.37,2013-01-03 09:28:00,
2013-01-03 04:30:00,-2.7,-10.1,30.22,North,4,1.6,3.5,70,0.00,CLR,OVC,0.00,WeatherDisplay:10.37,2013-01-03 09:30:00,
2013-01-03 04:31:00,-2.6,-10.0,30.22,North,4,0.8,2.3,70,0.00,CLR,OVC,0.00,WeatherDisplay:10.37,2013-01-03 09:31:00,
2013-01-03 04:33:00,-2.6,-10.0,30.22,North,4,0.4,1.2,70,0.00,CLR,OVC,0.00,WeatherDisplay:10.37,2013-01-03 09:33:00,
2013-01-03 04:35:00,-2.6,-9.7,30.22,North,4,1.5,2.3,71,0.00,CLR,OVC,0.00,WeatherDisplay:10.37,2013-01-03 09:35:00,
2013-01-03 04:36:00,-2.6,-9.7,30.22,North,4,1.8,2.3,71,0.00,CLR,OVC,0.00,WeatherDisplay:10.37,2013-01-03 09:36:00,
2013-01-03 04:38:00,-2.5,-9.6,30.22,North,4,0.0,2.3,71,0.00,CLR,OVC,0.00,WeatherDisplay:10.37,2013-01-03 09:38:00,
2013-01-03 04:40:00,-2.4,-9.5,30.22,North,4,0.7,2.3,71,0.00,CLR,OVC,0.00,WeatherDisplay:10.37,2013-01-03 09:40:00,
2013-01-03 04:41:00,-2.4,-9.5,30.22,North,4,0.2,2.0,71,0.00,CLR,OVC,0.00,WeatherDisplay:10.37,2013-01-03 09:41:00,
2013-01-03 04:42:00,-2.5,-9.6,30.22,North,4,0.4,2.0,71,0.00,CLR,OVC,0.00,WeatherDisplay:10.37,2013-01-03 09:42:00,
2013-01-03 04:44:00,-2.5,-9.9,30.22,North,4,2.0,3.5,70,0.00,CLR,OVC,0.00,WeatherDisplay:10.37,2013-01-03 09:44:00,
2013-01-03 04:45:00,-2.6,-10.0,30.22,North,4,1.4,2.3,70,0.00,CLR,OVC,0.00,WeatherDisplay:10.37,2013-01-03 09:45:00,
2013-01-03 04:47:00,-2.6,-10.0,30.22,North,4,1.6,2.3,70,0.00,CLR,OVC,0.00,WeatherDisplay:10.37,2013-01-03 09:47:00,
2013-01-03 04:50:00,-2.7,-10.1,30.22,North,4,2.4,3.5,70,0.00,CLR,OVC,0.00,WeatherDisplay:10.37,2013-01-03 09:50:00,
2013-01-03 04:51:00,-2.7,-9.8,30.22,North,4,1.6,3.5,71,0.00,CLR,OVC,0.00,WeatherDisplay:10.37,2013-01-03 09:51:00,
2013-01-03 04:52:00,-2.6,-9.7,30.22,North,4,0.8,3.5,71,0.00,CLR,OVC,0.00,WeatherDisplay:10.37,2013-01-03 09:52:00,
2013-01-03 04:55:00,-2.7,-9.8,30.22,North,4,0.0,0.0,71,0.00,CLR,OVC,0.00,WeatherDisplay:10.37,2013-01-03 09:55:00,
2013-01-03 04:56:00,-2.6,-9.7,30.22,North,4,0.1,1.2,71,0.00,CLR,OVC,0.00,WeatherDisplay:10.37,2013-01-03 09:56:00,
2013-01-03 04:57:00,-2.6,-9.7,30.22,North,4,0.4,1.2,71,0.00,CLR,OVC,0.00,WeatherDisplay:10.37,2013-01-03 09:57:00,
2013-01-03 05:00:00,-2.6,-9.7,30.22,North,4,0.0,0.0,71,0.00,CLR,OVC,0.00,WeatherDisplay:10.37,2013-01-03 10:00:00,
2013-01-03 05:01:00,-2.6,-9.7,30.22,North,4,0.0,0.0,71,0.00,CLR,OVC,0.00,WeatherDisplay:10.37,2013-01-03 10:01:00,
2013-01-03 05:02:00,-2.6,-9.7,30.22,North,4,0.4,2.0,71,0.00,CLR,OVC,0.00,WeatherDisplay:10.37,2013-01-03 10:02:00,
2013-01-03 05:05:00,-2.5,-9.6,30.22,North,4,1.2,3.5,71,0.00,CLR,OVC,0.00,WeatherDisplay:10.37,2013-01-03 10:05:00,
2013-01-03 05:06:00,-2.6,-9.7,30.22,North,4,2.3,3.5,71,0.00,CLR,OVC,0.00,WeatherDisplay:10.37,2013-01-03 10:06:00,
2013-01-03 05:07:00,-2.6,-9.7,30.22,North,4,2.4,3.5,71,0.00,CLR,OVC,0.00,WeatherDisplay:10.37,2013-01-03 10:07:00,
2013-01-03 05:10:00,-2.7,-9.8,30.22,North,4,2.4,3.5,71,0.00,CLR,OVC,0.00,WeatherDisplay:10.37,2013-01-03 10:10:00,
2013-01-03 05:11:00,-2.8,-9.9,30.22,North,4,0.1,3.5,71,0.00,CLR,OVC,0.00,WeatherDisplay:10.37,2013-01-03 10:11:00,
2013-01-03 05:12:00,-2.7,-9.8,30.22,North,4,0.1,1.2,71,0.00,CLR,OVC,0.00,WeatherDisplay:10.37,2013-01-03 10:12:00,
2013-01-03 05:15:00,-2.8,-9.9,30.22,North,4,0.0,0.0,71,0.00,CLR,OVC,0.00,WeatherDisplay:10.37,2013-01-03 10:15:00,
2013-01-03 05:16:00,-2.8,-9.9,30.22,North,4,0.0,0.0,71,0.00,CLR,OVC,0.00,WeatherDisplay:10.37,2013-01-03 10:16:00,
2013-01-03 05:17:00,-2.9,-10.0,30.21,North,4,0.0,0.0,71,0.00,CLR,OVC,0.00,WeatherDisplay:10.37,2013-01-03 10:17:00,
2013-01-03 05:20:00,-2.9,-10.0,30.21,North,4,2.6,3.5,71,0.00,CLR,OVC,0.00,WeatherDisplay:10.37,2013-01-03 10:20:00,
2013-01-03 05:21:00,-2.9,-10.0,30.21,North,4,2.4,3.5,71,0.00,CLR,OVC,0.00,WeatherDisplay:10.37,2013-01-03 10:21:00,
2013-01-03 05:22:00,-3.0,-10.1,30.21,North,4,2.1,3.5,71,0.00,CLR,OVC,0.00,WeatherDisplay:10.37,2013-01-03 10:22:00,
2013-01-03 05:23:00,-3.0,-10.1,30.21,North,4,1.6,3.5,71,0.00,CLR,OVC,0.00,WeatherDisplay:10.37,2013-01-03 10:23:00,
2013-01-03 05:26:00,-3.0,-10.1,30.21,North,4,0.0,0.0,71,0.00,CLR,OVC,0.00,WeatherDisplay:10.37,2013-01-03 10:26:00,
2013-01-03 05:27:00,-3.1,-10.2,30.23,North,4,0.0,0.0,71,0.00,CLR,OVC,0.00,WeatherDisplay:10.37,2013-01-03 10:27:00,
2013-01-03 05:28:00,-3.1,-10.2,30.22,North,4,0.0,0.0,71,0.00,CLR,OVC,0.00,WeatherDisplay:10.37,2013-01-03 10:28:00,
2013-01-03 05:31:00,-3.0,-10.1,30.22,North,4,1.5,2.3,71,0.00,CLR,OVC,0.00,WeatherDisplay:10.37,2013-01-03 10:31:00,
2013-01-03 05:32:00,-3.0,-10.1,30.22,North,4,1.2,3.5,71,0.00,CLR,OVC,0.00,WeatherDisplay:10.37,2013-01-03 10:32:00,
2013-01-03 05:33:00,-3.1,-10.2,30.22,North,4,0.1,2.3,71,0.00,CLR,OVC,0.00,WeatherDisplay:10.37,2013-01-03 10:33:00,
2013-01-03 05:36:00,-3.1,-10.2,30.22,North,4,0.3,2.0,71,0.00,CLR,OVC,0.00,WeatherDisplay:10.37,2013-01-03 10:36:00,
2013-01-03 05:37:00,-3.1,-10.2,30.22,North,4,1.3,2.3,71,0.00,CLR,OVC,0.00,WeatherDisplay:10.37,2013-01-03 10:37:00,
2013-01-03 05:38:00,-3.2,-10.3,30.22,North,4,0.8,2.3,71,0.00,CLR,OVC,0.00,WeatherDisplay:10.37,2013-01-03 10:38:00,
2013-01-03 05:41:00,-3.4,-10.5,30.22,North,4,1.9,3.5,71,0.00,CLR,OVC,0.00,WeatherDisplay:10.37,2013-01-03 10:41:00,
2013-01-03 05:42:00,-3.4,-10.5,30.22,North,4,1.4,3.5,71,0.00,CLR,OVC,0.00,WeatherDisplay:10.37,2013-01-03 10:42:00,
2013-01-03 05:43:00,-3.5,-10.6,30.22,North,4,0.3,1.2,71,0.00,CLR,OVC,0.00,WeatherDisplay:10.37,2013-01-03 10:43:00,
2013-01-03 05:46:00,-3.7,-10.7,30.22,North,4,1.6,2.3,71,0.00,CLR,OVC,0.00,WeatherDisplay:10.37,2013-01-03 10:46:00,
2013-01-03 05:47:00,-3.7,-10.7,30.22,North,4,1.5,2.3,71,0.00,CLR,OVC,0.00,WeatherDisplay:10.37,2013-01-03 10:47:00,
2013-01-03 05:48:00,-3.7,-10.7,30.22,North,4,0.2,1.2,71,0.00,CLR,OVC,0.00,WeatherDisplay:10.37,2013-01-03 10:48:00,
2013-01-03 05:51:00,-3.9,-10.9,30.22,North,4,1.9,3.0,71,0.00,CLR,OVC,0.00,WeatherDisplay:10.37,2013-01-03 10:51:00,
2013-01-03 05:52:00,-3.9,-10.9,30.22,North,4,2.6,3.5,71,0.00,CLR,OVC,0.00,WeatherDisplay:10.37,2013-01-03 10:52:00,
2013-01-03 05:53:00,-4.0,-11.0,30.22,North,4,2.8,3.5,71,0.00,CLR,OVC,0.00,WeatherDisplay:10.37,2013-01-03 10:53:00,
2013-01-03 05:56:00,-4.1,-11.1,30.22,North,4,2.6,3.5,71,0.00,CLR,OVC,0.00,WeatherDisplay:10.37,2013-01-03 10:56:00,
2013-01-03 05:57:00,-4.1,-11.1,30.22,North,4,2.5,3.5,71,0.00,CLR,OVC,0.00,WeatherDisplay:10.37,2013-01-03 10:57:00,
2013-01-03 05:58:00,-4.2,-11.2,30.22,North,4,1.4,3.5,71,0.00,CLR,OVC,0.00,WeatherDisplay:10.37,2013-01-03 10:58:00,
2013-01-03 06:01:00,-4.4,-11.4,30.22,North,4,2.9,4.6,71,0.00,CLR,OVC,0.00,WeatherDisplay:10.37,2013-01-03 11:01:00,
2013-01-03 06:02:00,-4.4,-11.4,30.22,North,4,2.5,3.5,71,0.00,CLR,OVC,0.00,WeatherDisplay:10.37,2013-01-03 11:02:00,
2013-01-03 06:03:00,-4.4,-11.4,30.23,North,4,2.2,3.5,71,0.00,CLR,OVC,0.00,WeatherDisplay:10.37,2013-01-03 11:03:00,
2013-01-03 06:04:00,-4.5,-11.5,30.23,North,4,2.2,3.5,71,0.00,CLR,OVC,0.00,WeatherDisplay:10.37,2013-01-03 11:04:00,
2013-01-03 06:06:00,-4.5,-11.5,30.23,North,4,1.6,3.5,71,0.00,CLR,OVC,0.00,WeatherDisplay:10.37,2013-01-03 11:06:00,
2013-01-03 06:07:00,-4.5,-11.5,30.23,North,4,2.5,3.5,71,0.00,CLR,OVC,0.00,WeatherDisplay:10.37,2013-01-03 11:07:00,
2013-01-03 06:08:00,-4.5,-11.5,30.23,North,4,2.8,3.5,71,0.00,CLR,OVC,0.00,WeatherDisplay:10.37,2013-01-03 11:08:00,
2013-01-03 06:09:00,-4.4,-11.4,30.23,North,4,2.3,3.5,71,0.00,CLR,OVC,0.00,WeatherDisplay:10.37,2013-01-03 11:09:00,
2013-01-03 06:11:00,-4.4,-11.4,30.22,North,4,1.7,3.5,71,0.00,CLR,OVC,0.00,WeatherDisplay:10.37,2013-01-03 11:11:00,
2013-01-03 06:12:00,-4.4,-11.1,30.22,North,4,1.8,2.3,72,0.00,CLR,OVC,0.00,WeatherDisplay:10.37,2013-01-03 11:12:00,
2013-01-03 06:13:00,-4.4,-11.4,30.22,North,4,2.0,3.0,71,0.00,CLR,OVC,0.00,WeatherDisplay:10.37,2013-01-03 11:13:00,
2013-01-03 06:14:00,-4.4,-11.4,30.22,North,4,2.4,3.5,71,0.00,CLR,OVC,0.00,WeatherDisplay:10.37,2013-01-03 11:14:00,
2013-01-03 06:16:00,-4.5,-11.5,30.22,North,4,3.2,3.5,71,0.00,CLR,OVC,0.00,WeatherDisplay:10.37,2013-01-03 11:16:00,
2013-01-03 06:17:00,-4.5,-11.5,30.22,North,4,2.9,3.5,71,0.00,CLR,OVC,0.00,WeatherDisplay:10.37,2013-01-03 11:17:00,
2013-01-03 06:18:00,-4.6,-11.6,30.23,North,4,2.3,3.5,71,0.00,CLR,OVC,0.00,WeatherDisplay:10.37,2013-01-03 11:18:00,
2013-01-03 06:19:00,-4.6,-11.6,30.23,North,4,1.3,3.5,71,0.00,CLR,OVC,0.00,WeatherDisplay:10.37,2013-01-03 11:19:00,
2013-01-03 06:21:00,-4.7,-11.7,30.23,North,4,1.6,2.3,71,0.00,CLR,OVC,0.00,WeatherDisplay:10.37,2013-01-03 11:21:00,
2013-01-03 06:22:00,-4.7,-11.7,30.23,North,4,1.6,3.0,71,0.00,CLR,OVC,0.00,WeatherDisplay:10.37,2013-01-03 11:22:00,
2013-01-03 06:23:00,-4.7,-11.7,30.23,North,4,2.0,3.5,71,0.00,CLR,OVC,0.00,WeatherDisplay:10.37,2013-01-03 11:23:00,
2013-01-03 06:24:00,-4.7,-11.7,30.23,North,4,3.3,4.0,71,0.00,CLR,OVC,0.00,WeatherDisplay:10.37,2013-01-03 11:24:00,
2013-01-03 06:26:00,-4.8,-11.8,30.23,North,4,0.7,3.5,71,0.00,CLR,OVC,0.00,WeatherDisplay:10.37,2013-01-03 11:26:00,
2013-01-03 06:27:00,-4.9,-11.9,30.23,North,4,0.2,2.3,71,0.00,CLR,OVC,0.00,WeatherDisplay:10.37,2013-01-03 11:27:00,
2013-01-03 06:28:00,-5.0,-12.0,30.23,North,4,1.1,2.3,71,0.00,CLR,OVC,0.00,WeatherDisplay:10.37,2013-01-03 11:28:00,
2013-01-03 06:30:00,-5.1,-12.1,30.23,North,4,1.0,2.3,71,0.00,CLR,OVC,0.00,WeatherDisplay:10.37,2013-01-03 11:30:00,
2013-01-03 06:32:00,-5.2,-12.2,30.23,North,4,1.8,2.3,71,0.00,CLR,OVC,0.00,WeatherDisplay:10.37,2013-01-03 11:32:00,
2013-01-03 06:34:00,-5.3,-12.3,30.23,North,4,1.9,2.3,71,0.00,CLR,OVC,0.00,WeatherDisplay:10.37,2013-01-03 11:34:00,
2013-01-03 06:35:00,-5.4,-12.4,30.22,North,4,2.0,3.5,71,0.00,CLR,OVC,0.00,WeatherDisplay:10.37,2013-01-03 11:35:00,
2013-01-03 06:37:00,-5.4,-12.4,30.22,North,4,1.0,2.3,71,0.00,CLR,OVC,0.00,WeatherDisplay:10.37,2013-01-03 11:37:00,
2013-01-03 06:39:00,-5.6,-12.6,30.22,North,4,0.7,1.2,71,0.00,CLR,OVC,0.00,WeatherDisplay:10.37,2013-01-03 11:39:00,
2013-01-03 06:40:00,-5.6,-12.6,30.23,North,4,1.0,3.5,71,0.00,CLR,OVC,0.00,WeatherDisplay:10.37,2013-01-03 11:40:00,
2013-01-03 06:42:00,-5.7,-12.7,30.23,North,4,2.2,3.5,71,0.00,CLR,OVC,0.00,WeatherDisplay:10.37,2013-01-03 11:42:00,
2013-01-03 06:44:00,-5.8,-12.8,30.23,North,4,0.2,2.3,71,0.00,CLR,OVC,0.00,WeatherDisplay:10.37,2013-01-03 11:44:00,
2013-01-03 06:45:00,-5.8,-12.8,30.23,North,4,0.0,0.0,71,0.00,CLR,OVC,0.00,WeatherDisplay:10.37,2013-01-03 11:45:00,
2013-01-03 06:47:00,-5.9,-12.9,30.23,North,4,0.6,2.0,71,0.00,CLR,OVC,0.00,WeatherDisplay:10.37,2013-01-03 11:47:00,
2013-01-03 06:49:00,-5.9,-12.9,30.23,North,4,1.4,3.5,71,0.00,CLR,OVC,0.00,WeatherDisplay:10.37,2013-01-03 11:49:00,
2013-01-03 06:50:00,-6.0,-13.0,30.23,North,4,0.2,2.3,71,0.00,CLR,OVC,0.00,WeatherDisplay:10.37,2013-01-03 11:50:00,
2013-01-03 06:52:00,-6.1,-13.1,30.22,North,4,0.8,2.3,71,0.00,CLR,OVC,0.00,WeatherDisplay:10.37,2013-01-03 11:52:00,
2013-01-03 06:54:00,-6.2,-13.2,30.22,North,4,1.9,3.5,71,0.00,CLR,OVC,0.00,WeatherDisplay:10.37,2013-01-03 11:54:00,
2013-01-03 06:55:00,-6.3,-13.3,30.22,North,4,1.5,3.5,71,0.00,CLR,OVC,0.00,WeatherDisplay:10.37,2013-01-03 11:55:00,
2013-01-03 06:57:00,-6.4,-13.4,30.22,North,4,1.5,2.3,71,0.00,CLR,OVC,0.00,WeatherDisplay:10.37,2013-01-03 11:57:00,
2013-01-03 06:59:00,-6.4,-13.4,30.22,North,4,0.0,0.0,71,0.00,CLR,OVC,0.00,WeatherDisplay:10.37,2013-01-03 11:59:00,
2013-01-03 07:00:00,-6.5,-13.5,30.22,North,4,0.1,0.0,71,0.00,CLR,OVC,0.00,WeatherDisplay:10.37,2013-01-03 12:00:00,
2013-01-03 07:02:00,-6.5,-13.5,30.22,North,4,1.1,2.3,71,0.00,CLR,OVC,0.00,WeatherDisplay:10.37,2013-01-03 12:02:00,
2013-01-03 07:04:00,-6.5,-13.5,30.23,North,4,2.1,3.5,71,0.00,CLR,OVC,0.00,WeatherDisplay:10.37,2013-01-03 12:04:00,
2013-01-03 07:05:00,-6.6,-13.5,30.23,North,4,2.3,3.5,71,0.00,CLR,OVC,0.00,WeatherDisplay:10.37,2013-01-03 12:05:00,
2013-01-03 07:07:00,-6.7,-13.6,30.23,North,4,2.1,3.5,71,0.00,CLR,OVC,0.00,WeatherDisplay:10.37,2013-01-03 12:07:00,
2013-01-03 07:08:00,-6.6,-13.5,30.22,North,4,2.2,3.5,71,0.00,CLR,OVC,0.00,WeatherDisplay:10.37,2013-01-03 12:08:00,
2013-01-03 07:09:00,-6.7,-13.6,30.23,North,4,2.8,3.5,71,0.00,CLR,OVC,0.00,WeatherDisplay:10.37,2013-01-03 12:09:00,
2013-01-03 07:11:00,-6.7,-13.6,30.23,North,4,2.6,3.5,71,0.00,CLR,OVC,0.00,WeatherDisplay:10.37,2013-01-03 12:11:00,
2013-01-03 07:12:00,-6.7,-13.6,30.23,North,4,1.0,3.5,71,0.00,CLR,OVC,0.00,WeatherDisplay:10.37,2013-01-03 12:12:00,
2013-01-03 07:13:00,-6.6,-13.5,30.23,North,4,0.7,2.3,71,0.00,CLR,OVC,0.00,WeatherDisplay:10.37,2013-01-03 12:13:00,
2013-01-03 07:14:00,-6.5,-13.2,30.23,North,4,0.8,1.2,72,0.00,CLR,OVC,0.00,WeatherDisplay:10.37,2013-01-03 12:14:00,
2013-01-03 07:16:00,-6.4,-13.1,30.22,North,4,0.1,1.2,72,0.00,CLR,OVC,0.00,WeatherDisplay:10.37,2013-01-03 12:16:00,
2013-01-03 07:17:00,-6.3,-13.0,30.22,North,4,1.0,2.3,72,0.00,CLR,OVC,0.00,WeatherDisplay:10.37,2013-01-03 12:17:00,
2013-01-03 07:18:00,-6.3,-13.0,30.22,North,4,0.9,2.3,72,0.00,CLR,OVC,0.00,WeatherDisplay:10.37,2013-01-03 12:18:00,
2013-01-03 07:19:00,-6.2,-12.9,30.22,North,4,0.6,2.3,72,0.00,CLR,OVC,0.00,WeatherDisplay:10.37,2013-01-03 12:19:00,
2013-01-03 07:21:00,-6.1,-12.8,30.22,North,4,0.0,1.0,72,0.00,CLR,OVC,0.00,WeatherDisplay:10.37,2013-01-03 12:21:00,
2013-01-03 07:23:00,-5.9,-12.6,30.22,North,4,1.1,2.3,72,0.00,CLR,OVC,0.00,WeatherDisplay:10.37,2013-01-03 12:23:00,
2013-01-03 07:25:00,-5.9,-12.6,30.22,North,4,0.5,1.2,72,0.00,CLR,OVC,0.00,WeatherDisplay:10.37,2013-01-03 12:25:00,
2013-01-03 07:26:00,-5.8,-12.2,30.22,North,4,0.3,1.2,73,0.00,CLR,OVC,0.00,WeatherDisplay:10.37,2013-01-03 12:26:00,
2013-01-03 07:28:00,-5.8,-12.5,30.22,North,4,0.2,1.2,72,0.00,CLR,OVC,0.00,WeatherDisplay:10.37,2013-01-03 12:28:00,
2013-01-03 07:30:00,-5.8,-12.5,30.22,North,4,0.9,2.3,72,0.00,CLR,OVC,0.00,WeatherDisplay:10.37,2013-01-03 12:30:00,
2013-01-03 07:31:00,-5.9,-12.6,30.22,North,4,1.3,2.3,72,0.00,CLR,OVC,0.00,WeatherDisplay:10.37,2013-01-03 12:31:00,
2013-01-03 07:33:00,-5.9,-12.6,30.22,North,4,2.3,3.5,72,0.00,CLR,OVC,0.00,WeatherDisplay:10.37,2013-01-03 12:33:00,
2013-01-03 07:35:00,-6.0,-12.7,30.22,North,4,1.9,2.3,72,0.00,CLR,OVC,0.00,WeatherDisplay:10.37,2013-01-03 12:35:00,
2013-01-03 07:36:00,-6.0,-12.7,30.21,North,4,1.7,2.3,72,0.00,CLR,OVC,0.00,WeatherDisplay:10.37,2013-01-03 12:36:00,
2013-01-03 07:38:00,-6.1,-12.8,30.21,North,4,1.1,3.5,72,0.00,CLR,OVC,0.00,WeatherDisplay:10.37,2013-01-03 12:38:00,
2013-01-03 07:40:00,-6.0,-12.4,30.22,North,4,0.8,1.2,73,0.00,CLR,OVC,0.00,WeatherDisplay:10.37,2013-01-03 12:40:00,
2013-01-03 07:41:00,-6.1,-12.8,30.21,North,4,0.7,1.2,72,0.00,CLR,OVC,0.00,WeatherDisplay:10.37,2013-01-03 12:41:00,
2013-01-03 07:43:00,-6.1,-12.8,30.21,North,4,1.4,2.3,72,0.00,CLR,OVC,0.00,WeatherDisplay:10.37,2013-01-03 12:43:00,
2013-01-03 07:45:00,-6.1,-12.8,30.21,North,4,2.0,3.5,72,0.00,CLR,OVC,0.00,WeatherDisplay:10.37,2013-01-03 12:45:00,
2013-01-03 07:47:00,-6.2,-12.9,30.21,North,4,1.6,2.3,72,0.00,CLR,OVC,0.00,WeatherDisplay:10.37,2013-01-03 12:47:00,
2013-01-03 07:48:00,-6.2,-12.9,30.21,North,4,1.3,2.3,72,0.00,CLR,OVC,0.00,WeatherDisplay:10.37,2013-01-03 12:48:00,
2013-01-03 07:49:00,-6.2,-12.9,30.21,North,4,0.9,2.3,72,0.00,CLR,OVC,0.00,WeatherDisplay:10.37,2013-01-03 12:49:00,
2013-01-03 07:51:00,-6.2,-12.9,30.21,North,4,0.3,1.2,72,0.00,CLR,OVC,0.00,WeatherDisplay:10.37,2013-01-03 12:51:00,
2013-01-03 07:52:00,-6.2,-12.9,30.21,North,4,0.0,0.0,72,0.00,CLR,OVC,0.00,WeatherDisplay:10.37,2013-01-03 12:52:00,
2013-01-03 07:54:00,-6.3,-13.0,30.21,North,4,0.0,0.0,72,0.00,CLR,OVC,0.00,WeatherDisplay:10.37,2013-01-03 12:54:00,
2013-01-03 07:56:00,-6.2,-12.9,30.21,North,4,0.0,0.0,72,0.00,CLR,OVC,0.00,WeatherDisplay:10.37,2013-01-03 12:56:00,
2013-01-03 07:57:00,-6.3,-13.0,30.21,North,4,0.0,0.0,72,0.00,CLR,OVC,0.00,WeatherDisplay:10.37,2013-01-03 12:57:00,
2013-01-03 07:59:00,-6.3,-13.0,30.21,North,4,0.0,0.0,72,0.00,CLR,OVC,0.00,WeatherDisplay:10.37,2013-01-03 12:59:00,
2013-01-03 08:01:00,-6.4,-13.1,30.20,North,4,0.6,1.2,72,0.00,CLR,OVC,0.00,WeatherDisplay:10.37,2013-01-03 13:01:00,
2013-01-03 08:02:00,-6.5,-13.5,30.21,North,4,1.2,2.3,71,0.00,CLR,OVC,0.00,WeatherDisplay:10.37,2013-01-03 13:02:00,
2013-01-03 08:04:00,-6.8,-13.5,30.21,North,4,0.8,2.3,72,0.00,CLR,OVC,0.00,WeatherDisplay:10.37,2013-01-03 13:04:00,
2013-01-03 08:06:00,-6.9,-13.6,30.21,North,4,1.2,2.3,72,0.00,CLR,OVC,0.00,WeatherDisplay:10.37,2013-01-03 13:06:00,
2013-01-03 08:07:00,-7.0,-13.7,30.21,North,4,1.3,2.3,72,0.00,CLR,OVC,0.00,WeatherDisplay:10.37,2013-01-03 13:07:00,
2013-01-03 08:09:00,-7.0,-13.7,30.21,North,4,0.9,2.3,72,0.00,CLR,OVC,0.00,WeatherDisplay:10.37,2013-01-03 13:09:00,
2013-01-03 08:12:00,-7.0,-13.7,30.20,North,4,2.5,3.5,72,0.00,CLR,OVC,0.00,WeatherDisplay:10.37,2013-01-03 13:12:00,
2013-01-03 08:14:00,-7.1,-13.8,30.20,North,4,2.5,3.5,72,0.00,CLR,OVC,0.00,WeatherDisplay:10.37,2013-01-03 13:14:00,
2013-01-03 08:17:00,-7.1,-13.8,30.20,North,4,1.7,2.3,72,0.00,CLR,OVC,0.00,WeatherDisplay:10.37,2013-01-03 13:17:00,
2013-01-03 08:19:00,-7.1,-13.8,30.20,North,4,2.2,3.5,72,0.00,CLR,OVC,0.00,WeatherDisplay:10.37,2013-01-03 13:19:00,
2013-01-03 08:22:00,-7.2,-13.8,30.20,North,4,2.3,3.5,72,0.00,CLR,OVC,0.00,WeatherDisplay:10.37,2013-01-03 13:22:00,
2013-01-03 08:24:00,-7.1,-13.8,30.20,North,4,1.9,2.3,72,0.00,CLR,OVC,0.00,WeatherDisplay:10.37,2013-01-03 13:24:00,
2013-01-03 08:27:00,-7.0,-13.4,30.20,North,4,0.9,2.3,73,0.00,CLR,OVC,0.00,WeatherDisplay:10.37,2013-01-03 13:27:00,
2013-01-03 08:28:00,-7.0,-13.4,30.20,North,4,0.6,1.2,73,0.00,CLR,OVC,0.00,WeatherDisplay:10.37,2013-01-03 13:28:00,
2013-01-03 08:29:00,-6.8,-13.2,30.20,North,4,0.2,1.2,73,0.00,CLR,OVC,0.00,WeatherDisplay:10.37,2013-01-03 13:29:00,
2013-01-03 08:32:00,-6.7,-13.1,30.20,North,4,0.0,0.0,73,0.00,CLR,OVC,0.00,WeatherDisplay:10.37,2013-01-03 13:32:00,
2013-01-03 08:33:00,-6.6,-13.0,30.20,North,4,0.0,0.0,73,0.00,CLR,OVC,0.00,WeatherDisplay:10.37,2013-01-03 13:33:00,
2013-01-03 08:34:00,-6.6,-13.0,30.20,North,4,0.0,0.0,73,0.00,CLR,OVC,0.00,WeatherDisplay:10.37,2013-01-03 13:34:00,
2013-01-03 08:38:00,-6.4,-12.8,30.20,North,4,0.0,0.0,73,0.00,CLR,OVC,0.00,WeatherDisplay:10.37,2013-01-03 13:38:00,
2013-01-03 08:39:00,-6.1,-12.5,30.20,North,4,0.1,0.0,73,0.00,CLR,OVC,0.00,WeatherDisplay:10.37,2013-01-03 13:39:00,
2013-01-03 08:43:00,-5.7,-11.8,30.20,North,4,0.0,0.0,74,0.00,CLR,OVC,0.00,WeatherDisplay:10.37,2013-01-03 13:43:00,
2013-01-03 08:44:00,-5.5,-11.7,30.20,North,4,0.0,1.0,74,0.00,CLR,OVC,0.00,WeatherDisplay:10.37,2013-01-03 13:44:00,
2013-01-03 08:45:00,-5.5,-11.7,30.20,North,4,0.2,1.2,74,0.00,CLR,OVC,0.00,WeatherDisplay:10.37,2013-01-03 13:45:00,
2013-01-03 08:48:00,-5.1,-11.3,30.20,North,4,1.0,2.3,74,0.00,CLR,OVC,0.00,WeatherDisplay:10.37,2013-01-03 13:48:00,
2013-01-03 08:49:00,-4.9,-11.1,30.20,North,4,0.9,2.3,74,0.00,CLR,OVC,0.00,WeatherDisplay:10.37,2013-01-03 13:49:00,
2013-01-03 08:50:00,-4.8,-11.0,30.20,North,4,1.1,2.3,74,0.00,CLR,OVC,0.00,WeatherDisplay:10.37,2013-01-03 13:50:00,
2013-01-03 08:53:00,-4.6,-10.8,30.20,North,4,2.4,3.5,74,0.00,CLR,OVC,0.00,WeatherDisplay:10.37,2013-01-03 13:53:00,
2013-01-03 08:54:00,-4.5,-10.7,30.20,North,4,2.0,3.5,74,0.00,CLR,OVC,0.00,WeatherDisplay:10.37,2013-01-03 13:54:00,
2013-01-03 08:55:00,-4.5,-10.7,30.20,North,4,1.9,3.5,74,0.00,CLR,OVC,0.00,WeatherDisplay:10.37,2013-01-03 13:55:00,
2013-01-03 08:58:00,-4.2,-10.4,30.20,North,4,1.5,2.3,74,0.00,CLR,OVC,0.00,WeatherDisplay:10.37,2013-01-03 13:58:00,
2013-01-03 09:00:00,-4.1,-10.3,30.20,North,4,1.0,2.3,74,0.00,CLR,OVC,0.00,WeatherDisplay:10.37,2013-01-03 14:00:00,
2013-01-03 09:03:00,-3.7,-9.6,30.20,North,4,1.1,2.3,75,0.00,CLR,OVC,0.00,WeatherDisplay:10.37,2013-01-03 14:03:00,
2013-01-03 09:05:00,-3.4,-9.3,30.20,North,4,0.6,1.2,75,0.00,CLR,OVC,0.00,WeatherDisplay:10.37,2013-01-03 14:05:00,
2013-01-03 09:06:00,-3.2,-9.2,30.20,North,4,0.7,1.2,75,0.00,CLR,OVC,0.00,WeatherDisplay:10.37,2013-01-03 14:06:00,
2013-01-03 09:08:00,-2.8,-8.8,30.20,North,4,0.9,1.2,75,0.00,CLR,OVC,0.00,WeatherDisplay:10.37,2013-01-03 14:08:00,
2013-01-03 09:09:00,-2.7,-8.4,30.20,North,4,1.1,2.3,76,0.00,CLR,OVC,0.00,WeatherDisplay:10.37,2013-01-03 14:09:00,
2013-01-03 09:10:00,-2.4,-8.1,30.20,North,4,1.2,2.3,76,0.00,CLR,OVC,0.00,WeatherDisplay:10.37,2013-01-03 14:10:00,
2013-01-03 09:11:00,-2.2,-7.9,30.20,North,4,1.7,3.5,76,0.00,CLR,OVC,0.00,WeatherDisplay:10.37,2013-01-03 14:11:00,
2013-01-03 09:13:00,-1.5,-7.2,30.20,North,4,0.8,3.5,76,0.00,CLR,OVC,0.00,WeatherDisplay:10.37,2013-01-03 14:13:00,
2013-01-03 09:14:00,-1.4,-7.1,30.20,North,4,1.1,2.3,76,0.00,CLR,OVC,0.00,WeatherDisplay:10.37,2013-01-03 14:14:00,
2013-01-03 09:15:00,-1.2,-7.2,30.20,North,4,1.4,3.5,75,0.00,CLR,OVC,0.00,WeatherDisplay:10.37,2013-01-03 14:15:00,
2013-01-03 09:16:00,-1.1,-7.1,30.19,North,4,1.8,3.5,75,0.00,CLR,OVC,0.00,WeatherDisplay:10.37,2013-01-03 14:16:00,
2013-01-03 09:18:00,-1.2,-7.5,30.19,North,4,2.4,3.5,74,0.00,CLR,OVC,0.00,WeatherDisplay:10.37,2013-01-03 14:18:00,
2013-01-03 09:19:00,-1.2,-7.5,30.19,North,4,2.5,3.5,74,0.00,CLR,OVC,0.00,WeatherDisplay:10.37,2013-01-03 14:19:00,
2013-01-03 09:20:00,-1.2,-7.5,30.19,North,4,2.5,3.5,74,0.00,CLR,OVC,0.00,WeatherDisplay:10.37,2013-01-03 14:20:00,
2013-01-03 09:21:00,-1.3,-7.6,30.19,North,4,2.9,4.0,74,0.00,CLR,OVC,0.00,WeatherDisplay:10.37,2013-01-03 14:21:00,
2013-01-03 09:23:00,-1.4,-8.0,30.20,North,4,2.3,3.5,73,0.00,CLR,OVC,0.00,WeatherDisplay:10.37,2013-01-03 14:23:00,
2013-01-03 09:24:00,-1.4,-8.0,30.20,North,4,2.0,3.5,73,0.00,CLR,OVC,0.00,WeatherDisplay:10.37,2013-01-03 14:24:00,
2013-01-03 09:25:00,-1.5,-8.1,30.20,North,4,2.4,3.5,73,0.00,CLR,OVC,0.00,WeatherDisplay:10.37,2013-01-03 14:25:00,
2013-01-03 09:26:00,-1.6,-8.4,30.20,North,4,2.6,3.5,72,0.00,CLR,OVC,0.00,WeatherDisplay:10.37,2013-01-03 14:26:00,
2013-01-03 09:28:00,-1.7,-8.3,30.20,North,4,2.0,3.5,73,0.00,CLR,OVC,0.00,WeatherDisplay:10.37,2013-01-03 14:28:00,
2013-01-03 09:29:00,-1.8,-8.6,30.20,North,4,1.7,3.5,72,0.00,CLR,OVC,0.00,WeatherDisplay:10.37,2013-01-03 14:29:00,
2013-01-03 09:30:00,-1.8,-8.6,30.20,North,4,1.8,2.3,72,0.00,CLR,OVC,0.00,WeatherDisplay:10.37,2013-01-03 14:30:00,
2013-01-03 09:31:00,-1.9,-8.7,30.20,North,4,1.6,3.0,72,0.00,CLR,OVC,0.00,WeatherDisplay:10.37,2013-01-03 14:31:00,
2013-01-03 09:34:00,-1.8,-8.3,30.20,North,4,2.4,3.5,73,0.00,CLR,OVC,0.00,WeatherDisplay:10.37,2013-01-03 14:34:00,
2013-01-03 09:35:00,-1.8,-8.6,30.20,North,4,3.0,4.0,72,0.00,CLR,OVC,0.00,WeatherDisplay:10.37,2013-01-03 14:35:00,
2013-01-03 09:36:00,-1.8,-8.6,30.20,North,4,3.4,4.0,72,0.00,CLR,OVC,0.00,WeatherDisplay:10.37,2013-01-03 14:36:00,
2013-01-03 09:39:00,-1.9,-8.7,30.20,North,4,2.9,3.5,72,0.00,CLR,OVC,0.00,WeatherDisplay:10.37,2013-01-03 14:39:00,
2013-01-03 09:40:00,-1.8,-8.6,30.20,North,4,2.6,4.0,72,0.00,CLR,OVC,0.00,WeatherDisplay:10.37,2013-01-03 14:40:00,
2013-01-03 09:41:00,-1.8,-8.6,30.20,North,4,2.1,3.5,72,0.00,CLR,OVC,0.00,WeatherDisplay:10.37,2013-01-03 14:41:00,
2013-01-03 09:44:00,-1.8,-8.6,30.20,North,4,1.8,3.5,72,0.00,CLR,OVC,0.00,WeatherDisplay:10.37,2013-01-03 14:44:00,
2013-01-03 09:46:00,-1.7,-8.5,30.20,North,4,1.3,2.3,72,0.00,CLR,OVC,0.00,WeatherDisplay:10.37,2013-01-03 14:46:00,
2013-01-03 09:49:00,-1.6,-8.4,30.20,North,4,1.9,3.5,72,0.00,CLR,OVC,0.00,WeatherDisplay:10.37,2013-01-03 14:49:00,
2013-01-03 09:51:00,-1.5,-8.3,30.20,North,4,2.8,3.5,72,0.00,CLR,OVC,0.00,WeatherDisplay:10.37,2013-01-03 14:51:00,
2013-01-03 09:54:00,-1.4,-8.5,30.20,North,4,2.6,3.5,71,0.00,CLR,OVC,0.00,WeatherDisplay:10.37,2013-01-03 14:54:00,
2013-01-03 09:56:00,-1.2,-8.3,30.20,North,4,2.2,3.5,71,0.00,CLR,OVC,0.00,WeatherDisplay:10.37,2013-01-03 14:56:00,
2013-01-03 09:59:00,-1.0,-8.1,30.20,North,4,3.1,4.0,71,0.00,CLR,OVC,0.00,WeatherDisplay:10.37,2013-01-03 14:59:00,
2013-01-03 10:01:00,-0.7,-7.9,30.20,North,357,3.1,4.6,71,0.00,CLR,OVC,0.00,WeatherDisplay:10.37,2013-01-03 15:01:00,
2013-01-03 10:04:00,-0.7,-8.1,30.20,North,357,2.7,4.0,70,0.00,CLR,OVC,0.00,WeatherDisplay:10.37,2013-01-03 15:04:00,
2013-01-03 10:06:00,-0.6,-8.0,30.20,WNW,296,3.4,4.6,70,0.00,CLR,OVC,0.00,WeatherDisplay:10.37,2013-01-03 15:06:00,
2013-01-03 10:07:00,-0.5,-7.7,30.20,WNW,296,3.3,4.6,71,0.00,CLR,OVC,0.00,WeatherDisplay:10.37,2013-01-03 15:07:00,
2013-01-03 10:09:00,-0.4,-7.9,30.20,WNW,295,2.9,4.0,70,0.00,CLR,OVC,0.00,WeatherDisplay:10.37,2013-01-03 15:09:00,
2013-01-03 10:12:00,-0.2,-7.7,30.20,WNW,295,3.3,5.0,70,0.00,CLR,OVC,0.00,WeatherDisplay:10.37,2013-01-03 15:12:00,
2013-01-03 10:14:00,0.0,-7.5,30.20,WNW,286,4.4,4.6,70,0.00,CLR,OVC,0.00,WeatherDisplay:10.37,2013-01-03 15:14:00,
2013-01-03 10:17:00,0.0,-7.5,30.20,WNW,286,3.4,4.6,70,0.00,CLR,OVC,0.00,WeatherDisplay:10.37,2013-01-03 15:17:00,
2013-01-03 10:19:00,0.2,-7.3,30.20,WSW,247,4.6,5.8,70,0.00,CLR,OVC,0.00,WeatherDisplay:10.37,2013-01-03 15:19:00,
2013-01-03 10:22:00,0.6,-6.9,30.19,WSW,246,4.0,4.6,70,0.00,CLR,OVC,0.00,WeatherDisplay:10.37,2013-01-03 15:22:00,
2013-01-03 10:24:00,1.0,-6.5,30.19,WSW,244,4.6,6.0,70,0.00,CLR,OVC,0.00,WeatherDisplay:10.37,2013-01-03 15:24:00,
2013-01-03 10:27:00,1.4,-6.4,30.19,WSW,238,4.4,5.0,69,0.00,CLR,OVC,0.00,WeatherDisplay:10.37,2013-01-03 15:27:00,
2013-01-03 10:29:00,1.4,-6.7,30.19,WSW,239,4.4,5.0,68,0.00,CLR,OVC,0.00,WeatherDisplay:10.37,2013-01-03 15:29:00,
2013-01-03 10:33:00,1.4,-6.4,30.19,WSW,238,4.7,6.0,69,0.00,CLR,OVC,0.00,WeatherDisplay:10.37,2013-01-03 15:33:00,
2013-01-03 10:34:00,1.5,-6.6,30.19,WSW,238,4.9,6.0,68,0.00,CLR,OVC,0.00,WeatherDisplay:10.37,2013-01-03 15:34:00,
2013-01-03 10:38:00,1.5,-6.6,30.19,WSW,237,6.0,7.0,68,0.00,CLR,OVC,0.00,WeatherDisplay:10.37,2013-01-03 15:38:00,
2013-01-03 10:39:00,1.5,-6.6,30.19,SW,234,6.9,8.1,68,0.00,CLR,OVC,0.00,WeatherDisplay:10.37,2013-01-03 15:39:00,
2013-01-03 10:43:00,1.6,-6.5,30.19,SW,230,6.6,8.1,68,0.00,CLR,OVC,0.00,WeatherDisplay:10.37,2013-01-03 15:43:00,
2013-01-03 10:44:00,1.6,-6.5,30.18,SW,228,6.6,8.1,68,0.00,CLR,OVC,0.00,WeatherDisplay:10.37,2013-01-03 15:44:00,
2013-01-03 10:48:00,1.7,-6.4,30.18,SW,221,7.4,9.2,68,0.00,CLR,OVC,0.00,WeatherDisplay:10.37,2013-01-03 15:48:00,
2013-01-03 10:49:00,1.7,-6.4,30.18,SW,220,7.1,10.0,68,0.00,CLR,OVC,0.00,WeatherDisplay:10.37,2013-01-03 15:49:00,
2013-01-03 10:50:00,1.7,-6.4,30.18,SW,224,7.0,10.0,68,0.00,CLR,OVC,0.00,WeatherDisplay:10.37,2013-01-03 15:50:00,
2013-01-03 10:53:00,1.9,-5.9,30.17,SW,220,7.0,8.1,69,0.00,CLR,OVC,0.00,WeatherDisplay:10.37,2013-01-03 15:53:00,
2013-01-03 10:54:00,2.0,-5.8,30.18,SSW,208,7.3,8.1,69,0.00,CLR,OVC,0.00,WeatherDisplay:10.37,2013-01-03 15:54:00,
2013-01-03 10:55:00,2.0,-5.8,30.18,SSW,209,7.3,9.2,69,0.00,CLR,OVC,0.00,WeatherDisplay:10.37,2013-01-03 15:55:00,
2013-01-03 10:58:00,2.3,-5.9,30.18,SW,218,7.7,8.1,68,0.00,CLR,OVC,0.00,WeatherDisplay:10.37,2013-01-03 15:58:00,
2013-01-03 11:00:00,2.4,-5.8,30.18,SW,221,8.0,9.2,68,0.00,CLR,OVC,0.00,WeatherDisplay:10.37,2013-01-03 16:00:00,
2013-01-03 11:03:00,2.7,-5.5,30.17,SW,221,7.1,9.2,68,0.00,CLR,OVC,0.00,WeatherDisplay:10.37,2013-01-03 16:03:00,
2013-01-03 11:05:00,2.7,-5.5,30.18,SW,222,7.1,9.2,68,0.00,CLR,OVC,0.00,WeatherDisplay:10.37,2013-01-03 16:05:00,
2013-01-03 11:08:00,2.9,-5.3,30.18,SW,222,6.6,8.1,68,0.00,CLR,OVC,0.00,WeatherDisplay:10.37,2013-01-03 16:08:00,
2013-01-03 11:09:00,3.0,-5.2,30.18,SW,222,6.7,8.1,68,0.00,CLR,OVC,0.00,WeatherDisplay:10.37,2013-01-03 16:09:00,
2013-01-03 11:10:00,3.1,-5.1,30.17,SW,222,6.6,8.1,68,0.00,CLR,OVC,0.00,WeatherDisplay:10.37,2013-01-03 16:10:00,
2013-01-03 11:11:00,3.2,-5.0,30.17,SW,222,7.0,8.1,68,0.00,CLR,OVC,0.00,WeatherDisplay:10.37,2013-01-03 16:11:00,
2013-01-03 11:13:00,3.2,-5.0,30.17,SW,222,6.6,9.2,68,0.00,CLR,OVC,0.00,WeatherDisplay:10.37,2013-01-03 16:13:00,
2013-01-03 11:14:00,3.2,-5.0,30.17,SW,222,6.1,8.1,68,0.00,CLR,OVC,0.00,WeatherDisplay:10.37,2013-01-03 16:14:00,
2013-01-03 11:15:00,3.2,-5.3,30.17,SW,222,5.6,6.9,67,0.00,CLR,OVC,0.00,WeatherDisplay:10.37,2013-01-03 16:15:00,
2013-01-03 11:16:00,3.2,-5.3,30.17,SW,222,6.1,8.1,67,0.00,CLR,OVC,0.00,WeatherDisplay:10.37,2013-01-03 16:16:00,
2013-01-03 11:18:00,3.2,-5.3,30.17,SW,222,6.1,6.9,67,0.00,CLR,OVC,0.00,WeatherDisplay:10.37,2013-01-03 16:18:00,
2013-01-03 11:19:00,3.2,-5.3,30.17,SW,222,5.7,6.9,67,0.00,CLR,OVC,0.00,WeatherDisplay:10.37,2013-01-03 16:19:00,
2013-01-03 11:20:00,3.2,-5.3,30.17,SW,222,5.8,8.1,67,0.00,CLR,OVC,0.00,WeatherDisplay:10.37,2013-01-03 16:20:00,
2013-01-03 11:21:00,3.2,-5.3,30.17,SW,222,6.0,8.1,67,0.00,CLR,OVC,0.00,WeatherDisplay:10.37,2013-01-03 16:21:00,
2013-01-03 11:24:00,3.3,-5.2,30.17,SW,222,6.3,6.9,67,0.00,CLR,OVC,0.00,WeatherDisplay:10.37,2013-01-03 16:24:00,
2013-01-03 11:25:00,3.5,-5.0,30.17,SW,222,6.6,9.2,67,0.00,CLR,OVC,0.00,WeatherDisplay:10.37,2013-01-03 16:25:00,
2013-01-03 11:26:00,3.5,-4.7,30.16,SW,222,6.4,8.1,68,0.00,CLR,OVC,0.00,WeatherDisplay:10.37,2013-01-03 16:26:00,
2013-01-03 11:29:00,3.7,-4.8,30.16,SW,222,6.1,6.9,67,0.00,CLR,OVC,0.00,WeatherDisplay:10.37,2013-01-03 16:29:00,
2013-01-03 11:30:00,3.7,-4.8,30.16,SW,222,6.3,7.0,67,0.00,CLR,OVC,0.00,WeatherDisplay:10.37,2013-01-03 16:30:00,
2013-01-03 11:31:00,3.8,-4.7,30.16,SW,222,7.0,8.1,67,0.00,CLR,OVC,0.00,WeatherDisplay:10.37,2013-01-03 16:31:00,
2013-01-03 11:34:00,3.7,-4.8,30.16,SW,222,5.6,6.9,67,0.00,CLR,OVC,0.00,WeatherDisplay:10.37,2013-01-03 16:34:00,
2013-01-03 11:35:00,3.7,-4.8,30.16,SW,222,5.6,7.0,67,0.00,CLR,OVC,0.00,WeatherDisplay:10.37,2013-01-03 16:35:00,
2013-01-03 11:36:00,3.8,-4.7,30.16,SW,222,5.8,6.9,67,0.00,CLR,OVC,0.00,WeatherDisplay:10.37,2013-01-03 16:36:00,
2013-01-03 11:39:00,4.0,-4.5,30.16,SW,222,4.3,5.0,67,0.00,CLR,OVC,0.00,WeatherDisplay:10.37,2013-01-03 16:39:00,
2013-01-03 11:40:00,4.1,-4.4,30.16,SW,222,4.3,6.0,67,0.00,CLR,OVC,0.00,WeatherDisplay:10.37,2013-01-03 16:40:00,
2013-01-03 11:41:00,4.1,-4.4,30.16,SW,222,5.3,6.9,67,0.00,CLR,OVC,0.00,WeatherDisplay:10.37,2013-01-03 16:41:00,
2013-01-03 11:44:00,4.3,-4.2,30.16,SW,222,4.4,6.0,67,0.00,CLR,OVC,0.00,WeatherDisplay:10.37,2013-01-03 16:44:00,
2013-01-03 11:45:00,4.3,-4.2,30.16,SW,222,4.6,5.8,67,0.00,CLR,OVC,0.00,WeatherDisplay:10.37,2013-01-03 16:45:00,
2013-01-03 11:46:00,4.3,-4.2,30.15,SW,222,4.6,5.8,67,0.00,CLR,OVC,0.00,WeatherDisplay:10.37,2013-01-03 16:46:00,
2013-01-03 11:49:00,4.5,-4.1,30.15,SW,222,5.2,8.0,67,0.00,CLR,OVC,0.00,WeatherDisplay:10.37,2013-01-03 16:49:00,
2013-01-03 11:50:00,4.5,-4.1,30.15,SSW,211,5.5,8.1,67,0.00,CLR,OVC,0.00,WeatherDisplay:10.37,2013-01-03 16:50:00,
2013-01-03 11:51:00,4.8,-3.8,30.15,SSW,207,6.5,8.1,67,0.00,CLR,OVC,0.00,WeatherDisplay:10.37,2013-01-03 16:51:00,
2013-01-03 11:55:00,5.2,-3.4,30.15,SSW,211,7.1,8.1,67,0.00,CLR,OVC,0.00,WeatherDisplay:10.37,2013-01-03 16:55:00,
2013-01-03 11:56:00,5.3,-3.6,30.15,SSW,213,7.4,9.2,66,0.00,CLR,OVC,0.00,WeatherDisplay:10.37,2013-01-03 16:56:00,
2013-01-03 12:00:00,5.0,-4.2,30.14,SW,217,6.7,8.1,65,0.00,CLR,OVC,0.00,WeatherDisplay:10.37,2013-01-03 17:00:00,
2013-01-03 12:01:00,4.9,-4.0,30.14,SW,217,6.3,8.1,66,0.00,CLR,OVC,0.00,WeatherDisplay:10.37,2013-01-03 17:01:00,
2013-01-03 12:05:00,4.8,-4.1,30.13,SW,218,6.4,8.1,66,0.00,CLR,OVC,0.00,WeatherDisplay:10.37,2013-01-03 17:05:00,
2013-01-03 12:06:00,4.7,-4.2,30.13,SW,218,5.9,9.2,66,0.00,CLR,OVC,0.00,WeatherDisplay:10.37,2013-01-03 17:06:00,
2013-01-03 12:07:00,4.7,-4.2,30.13,SW,217,6.5,9.2,66,0.00,CLR,OVC,0.00,WeatherDisplay:10.37,2013-01-03 17:07:00,
2013-01-03 12:10:00,4.6,-4.3,30.13,SW,215,6.6,8.1,66,0.00,CLR,OVC,0.00,WeatherDisplay:10.37,2013-01-03 17:10:00,
2013-01-03 12:12:00,4.7,-4.2,30.13,SW,215,6.1,8.1,66,0.00,CLR,OVC,0.00,WeatherDisplay:10.37,2013-01-03 17:12:00,
2013-01-03 12:15:00,4.9,-4.0,30.13,SW,216,6.2,8.0,66,0.00,CLR,OVC,0.00,WeatherDisplay:10.37,2013-01-03 17:15:00,
2013-01-03 12:16:00,4.9,-4.0,30.13,SW,216,6.6,8.1,66,0.00,CLR,OVC,0.00,WeatherDisplay:10.37,2013-01-03 17:16:00,
2013-01-03 12:17:00,5.0,-3.9,30.12,SW,216,7.0,9.2,66,0.00,CLR,OVC,0.00,WeatherDisplay:10.37,2013-01-03 17:17:00,
2013-01-03 12:20:00,5.3,-3.3,30.12,SW,217,6.9,9.2,67,0.00,CLR,OVC,0.00,WeatherDisplay:10.37,2013-01-03 17:20:00,
2013-01-03 12:21:00,5.3,-3.3,30.12,SW,217,6.7,8.1,67,0.00,CLR,OVC,0.00,WeatherDisplay:10.37,2013-01-03 17:21:00,
2013-01-03 12:22:00,5.3,-3.6,30.12,SW,217,6.3,8.1,66,0.00,CLR,OVC,0.00,WeatherDisplay:10.37,2013-01-03 17:22:00,
2013-01-03 12:25:00,5.3,-3.6,30.12,SSW,196,8.0,9.2,66,0.00,CLR,OVC,0.00,WeatherDisplay:10.37,2013-01-03 17:25:00,
2013-01-03 12:26:00,5.3,-3.6,30.12,SSW,195,7.5,9.2,66,0.00,CLR,OVC,0.00,WeatherDisplay:10.37,2013-01-03 17:26:00,
2013-01-03 12:27:00,5.5,-3.1,30.12,SSW,196,5.5,9.2,67,0.00,CLR,OVC,0.00,WeatherDisplay:10.37,2013-01-03 17:27:00,
2013-01-03 12:30:00,5.7,-3.2,30.12,SSW,198,6.7,10.4,66,0.00,CLR,OVC,0.00,WeatherDisplay:10.37,2013-01-03 17:30:00,
2013-01-03 12:31:00,5.7,-3.2,30.12,SSW,198,6.1,8.1,66,0.00,CLR,OVC,0.00,WeatherDisplay:10.37,2013-01-03 17:31:00,
2013-01-03 12:32:00,5.9,-3.0,30.12,SSW,206,6.8,7.0,66,0.00,CLR,OVC,0.00,WeatherDisplay:10.37,2013-01-03 17:32:00,
2013-01-03 12:36:00,6.3,-2.6,30.12,SSW,205,5.8,8.1,66,0.00,CLR,OVC,0.00,WeatherDisplay:10.37,2013-01-03 17:36:00,
2013-01-03 12:37:00,6.5,-2.5,30.12,South,177,7.8,9.0,66,0.00,CLR,OVC,0.00,WeatherDisplay:10.37,2013-01-03 17:37:00,
2013-01-03 12:38:00,6.5,-2.5,30.12,SSE,164,7.8,9.2,66,0.00,CLR,OVC,0.00,WeatherDisplay:10.37,2013-01-03 17:38:00,
2013-01-03 12:41:00,6.7,-2.6,30.12,South,176,4.7,8.1,65,0.00,CLR,OVC,0.00,WeatherDisplay:10.37,2013-01-03 17:41:00,
2013-01-03 12:42:00,6.9,-2.4,30.11,SSW,202,7.7,9.2,65,0.00,CLR,OVC,0.00,WeatherDisplay:10.37,2013-01-03 17:42:00,
2013-01-03 12:43:00,6.9,-2.4,30.11,SSW,197,7.6,9.2,65,0.00,CLR,OVC,0.00,WeatherDisplay:10.37,2013-01-03 17:43:00,
2013-01-03 12:46:00,7.0,-2.3,30.11,SW,216,7.3,9.2,65,0.00,CLR,OVC,0.00,WeatherDisplay:10.37,2013-01-03 17:46:00,
2013-01-03 12:47:00,7.0,-2.6,30.11,SW,216,5.8,8.1,64,0.00,CLR,OVC,0.00,WeatherDisplay:10.37,2013-01-03 17:47:00,
2013-01-03 12:48:00,7.0,-2.6,30.11,SW,218,6.2,6.9,64,0.00,CLR,OVC,0.00,WeatherDisplay:10.37,2013-01-03 17:48:00,
2013-01-03 12:51:00,7.0,-2.6,30.11,SSW,212,7.8,9.2,64,0.00,CLR,OVC,0.00,WeatherDisplay:10.37,2013-01-03 17:51:00,
2013-01-03 12:52:00,7.0,-2.6,30.10,SSW,209,8.4,11.5,64,0.00,CLR,OVC,0.00,WeatherDisplay:10.37,2013-01-03 17:52:00,
2013-01-03 12:53:00,7.0,-2.6,30.10,SSW,210,6.9,11.5,64,0.00,CLR,OVC,0.00,WeatherDisplay:10.37,2013-01-03 17:53:00,
2013-01-03 12:56:00,7.0,-3.0,30.10,SSW,213,7.2,8.1,63,0.00,CLR,OVC,0.00,WeatherDisplay:10.37,2013-01-03 17:56:00,
2013-01-03 12:57:00,7.1,-2.5,30.10,SSW,206,6.4,8.1,64,0.00,CLR,OVC,0.00,WeatherDisplay:10.37,2013-01-03 17:57:00,
2013-01-03 12:58:00,7.1,-2.5,30.10,SSW,213,6.2,8.1,64,0.00,CLR,OVC,0.00,WeatherDisplay:10.37,2013-01-03 17:58:00,
2013-01-03 13:01:00,7.2,-2.4,30.09,SW,220,7.4,9.0,64,0.00,CLR,OVC,0.00,WeatherDisplay:10.37,2013-01-03 18:01:00,
2013-01-03 13:02:00,7.3,-2.3,30.09,SW,220,8.5,9.2,64,0.00,CLR,OVC,0.00,WeatherDisplay:10.37,2013-01-03 18:02:00,
2013-01-03 13:03:00,7.3,-2.7,30.10,SW,222,8.4,10.4,63,0.00,CLR,OVC,0.00,WeatherDisplay:10.37,2013-01-03 18:03:00,
2013-01-03 13:06:00,7.3,-2.3,30.10,SW,223,8.4,11.5,64,0.00,CLR,OVC,0.00,WeatherDisplay:10.37,2013-01-03 18:06:00,
2013-01-03 13:07:00,7.4,-2.2,30.10,SW,223,8.4,11.5,64,0.00,CLR,OVC,0.00,WeatherDisplay:10.37,2013-01-03 18:07:00,
2013-01-03 13:08:00,7.4,-2.2,30.10,SW,224,7.9,10.4,64,0.00,CLR,OVC,0.00,WeatherDisplay:10.37,2013-01-03 18:08:00,
2013-01-03 13:11:00,7.5,-2.1,30.10,SW,220,9.3,11.5,64,0.00,CLR,OVC,0.00,WeatherDisplay:10.37,2013-01-03 18:11:00,
2013-01-03 13:13:00,7.5,-2.1,30.10,SW,214,9.2,11.5,64,0.00,CLR,OVC,0.00,WeatherDisplay:10.37,2013-01-03 18:13:00,
2013-01-03 13:16:00,7.7,-2.0,30.09,SSW,208,7.1,12.7,64,0.00,CLR,OVC,0.00,WeatherDisplay:10.37,2013-01-03 18:16:00,
2013-01-03 13:17:00,7.7,-2.0,30.10,SSW,209,6.5,8.1,64,0.00,CLR,OVC,0.00,WeatherDisplay:10.37,2013-01-03 18:17:00,
2013-01-03 13:18:00,7.7,-2.3,30.09,SSW,212,8.1,11.5,63,0.00,CLR,OVC,0.00,WeatherDisplay:10.37,2013-01-03 18:18:00,
2013-01-03 13:21:00,7.8,-2.2,30.09,SSW,201,7.2,10.4,63,0.00,CLR,OVC,0.00,WeatherDisplay:10.37,2013-01-03 18:21:00,
2013-01-03 13:22:00,7.7,-2.3,30.09,SSW,201,7.2,9.2,63,0.00,CLR,OVC,0.00,WeatherDisplay:10.37,2013-01-03 18:22:00,
2013-01-03 13:23:00,7.8,-2.2,30.09,SSW,194,6.8,10.4,63,0.00,CLR,OVC,0.00,WeatherDisplay:10.37,2013-01-03 18:23:00,
2013-01-03 13:26:00,7.9,-2.1,30.09,SSW,199,6.1,9.2,63,0.00,CLR,OVC,0.00,WeatherDisplay:10.37,2013-01-03 18:26:00,
2013-01-03 13:27:00,8.0,-2.0,30.09,SSW,200,6.2,8.0,63,0.00,CLR,OVC,0.00,WeatherDisplay:10.37,2013-01-03 18:27:00,
2013-01-03 13:28:00,8.1,-1.9,30.09,SSW,205,6.7,8.1,63,0.00,CLR,OVC,0.00,WeatherDisplay:10.37,2013-01-03 18:28:00,
2013-01-03 13:32:00,8.1,-1.9,30.08,SSW,211,5.9,8.1,63,0.00,CLR,OVC,0.00,WeatherDisplay:10.37,2013-01-03 18:32:00,
2013-01-03 13:33:00,8.1,-1.9,30.08,SSW,212,7.5,9.2,63,0.00,CLR,OVC,0.00,WeatherDisplay:10.37,2013-01-03 18:33:00,
2013-01-03 13:34:00,8.1,-1.9,30.08,SSW,212,7.5,9.2,63,0.00,CLR,OVC,0.00,WeatherDisplay:10.37,2013-01-03 18:34:00,
2013-01-03 13:37:00,8.0,-2.0,30.08,SSW,213,5.2,7.0,63,0.00,CLR,OVC,0.00,WeatherDisplay:10.37,2013-01-03 18:37:00,
2013-01-03 13:38:00,8.0,-2.0,30.08,SSW,213,6.2,8.1,63,0.00,CLR,OVC,0.00,WeatherDisplay:10.37,2013-01-03 18:38:00,
2013-01-03 13:39:00,8.0,-2.0,30.08,SSW,213,6.0,8.1,63,0.00,CLR,OVC,0.00,WeatherDisplay:10.37,2013-01-03 18:39:00,
2013-01-03 13:42:00,8.0,-2.0,30.08,SW,219,6.0,6.9,63,0.00,CLR,OVC,0.00,WeatherDisplay:10.37,2013-01-03 18:42:00,
2013-01-03 13:44:00,8.0,-2.0,30.08,SW,219,6.3,6.9,63,0.00,CLR,OVC,0.00,WeatherDisplay:10.37,2013-01-03 18:44:00,
2013-01-03 13:47:00,8.0,-2.0,30.08,SW,219,5.3,6.9,63,0.00,CLR,OVC,0.00,WeatherDisplay:10.37,2013-01-03 18:47:00,
2013-01-03 13:49:00,8.0,-1.7,30.08,SW,219,5.2,6.9,64,0.00,CLR,OVC,0.00,WeatherDisplay:10.37,2013-01-03 18:49:00,
2013-01-03 13:52:00,8.1,-1.6,30.08,SW,219,5.6,6.9,64,0.00,CLR,OVC,0.00,WeatherDisplay:10.37,2013-01-03 18:52:00,
2013-01-03 13:53:00,8.1,-1.6,30.08,SW,219,5.6,6.9,64,0.00,CLR,OVC,0.00,WeatherDisplay:10.37,2013-01-03 18:53:00,
2013-01-03 13:54:00,8.1,-1.6,30.08,SW,219,5.3,6.9,64,0.00,CLR,OVC,0.00,WeatherDisplay:10.37,2013-01-03 18:54:00,
2013-01-03 13:58:00,8.2,-1.5,30.08,SW,219,3.6,4.6,64,0.00,CLR,OVC,0.00,WeatherDisplay:10.37,2013-01-03 18:58:00,
2013-01-03 13:59:00,8.2,-1.5,30.08,SW,219,3.2,4.6,64,0.00,CLR,OVC,0.00,WeatherDisplay:10.37,2013-01-03 18:59:00,
2013-01-03 14:03:00,8.3,-1.4,30.07,SW,219,2.8,3.5,64,0.00,CLR,OVC,0.00,WeatherDisplay:10.37,2013-01-03 19:03:00,
2013-01-03 14:04:00,8.4,-1.3,30.08,SW,219,2.3,3.5,64,0.00,CLR,OVC,0.00,WeatherDisplay:10.37,2013-01-03 19:04:00,
2013-01-03 14:08:00,8.4,-1.6,30.07,SW,219,2.8,3.5,63,0.00,CLR,OVC,0.00,WeatherDisplay:10.37,2013-01-03 19:08:00,
2013-01-03 14:09:00,8.5,-1.2,30.07,SW,219,3.9,5.0,64,0.00,CLR,OVC,0.00,WeatherDisplay:10.37,2013-01-03 19:09:00,
2013-01-03 14:10:00,8.5,-1.2,30.07,SW,219,3.9,5.0,64,0.00,CLR,OVC,0.00,WeatherDisplay:10.37,2013-01-03 19:10:00,
2013-01-03 14:13:00,8.7,-1.0,30.06,SW,219,4.8,5.8,64,0.00,CLR,OVC,0.00,WeatherDisplay:10.37,2013-01-03 19:13:00,
2013-01-03 14:14:00,8.8,-1.2,30.06,SW,219,2.9,3.5,63,0.00,CLR,OVC,0.00,WeatherDisplay:10.37,2013-01-03 19:14:00,
2013-01-03 14:15:00,8.8,-0.9,30.06,SW,219,3.6,4.0,64,0.00,CLR,OVC,0.00,WeatherDisplay:10.37,2013-01-03 19:15:00,
2013-01-03 14:18:00,8.9,-1.1,30.06,SW,219,4.1,5.0,63,0.00,CLR,OVC,0.00,WeatherDisplay:10.37,2013-01-03 19:18:00,
2013-01-03 14:51:00,10.2,0.1,30.03,South,186,4.7,5.8,63,0.00,CLR,OVC,0.00,WeatherDisplay:10.37,2013-01-03 19:51:00,
2013-01-03 14:53:00,10.4,0.3,30.03,South,186,4.0,4.6,63,0.00,CLR,OVC,0.00,WeatherDisplay:10.37,2013-01-03 19:53:00,
2013-01-03 14:55:00,10.6,0.5,30.03,South,181,3.3,5.8,63,0.00,CLR,OVC,0.00,WeatherDisplay:10.37,2013-01-03 19:55:00,
2013-01-03 14:56:00,10.7,0.6,30.03,SSE,151,5.4,7.0,63,0.00,CLR,OVC,0.00,WeatherDisplay:10.37,2013-01-03 19:56:00,
2013-01-03 14:57:00,10.9,0.4,30.04,SSE,155,5.2,6.9,62,0.00,CLR,OVC,0.00,WeatherDisplay:10.37,2013-01-03 19:57:00,
2013-01-03 14:58:00,10.9,0.4,30.04,SSE,163,5.4,8.0,62,0.00,CLR,OVC,0.00,WeatherDisplay:10.37,2013-01-03 19:58:00,
2013-01-03 15:00:00,11.0,0.2,30.04,SSW,211,5.9,8.1,61,0.00,CLR,OVC,0.00,WeatherDisplay:10.37,2013-01-03 20:00:00,
2013-01-03 15:01:00,10.9,0.1,30.04,SSW,211,5.6,6.9,61,0.00,CLR,OVC,0.00,WeatherDisplay:10.37,2013-01-03 20:01:00,
2013-01-03 15:03:00,10.9,0.4,30.05,SSW,213,5.9,7.0,62,0.00,CLR,OVC,0.00,WeatherDisplay:10.37,2013-01-03 20:03:00,
2013-01-03 15:05:00,10.5,-0.3,30.05,SSW,213,6.0,6.9,61,0.00,CLR,OVC,0.00,WeatherDisplay:10.37,2013-01-03 20:05:00,
2013-01-03 15:07:00,10.3,-0.5,30.05,SSW,213,5.5,7.0,61,0.00,CLR,OVC,0.00,WeatherDisplay:10.37,2013-01-03 20:07:00,
2013-01-03 15:08:00,10.2,-0.6,30.05,SSW,213,5.2,6.9,61,0.00,CLR,OVC,0.00,WeatherDisplay:10.37,2013-01-03 20:08:00,
2013-01-03 15:09:00,10.1,-0.7,30.05,SSW,213,5.1,5.8,61,0.00,CLR,OVC,0.00,WeatherDisplay:10.37,2013-01-03 20:09:00,
2013-01-03 15:11:00,9.8,-1.0,30.05,SW,214,5.4,5.8,61,0.00,CLR,OVC,0.00,WeatherDisplay:10.37,2013-01-03 20:11:00,
2013-01-03 15:12:00,9.6,-1.2,30.04,SSW,213,5.0,5.8,61,0.00,CLR,OVC,0.00,WeatherDisplay:10.37,2013-01-03 20:12:00,
2013-01-03 15:13:00,9.5,-1.3,30.04,SSW,213,4.7,5.8,61,0.00,CLR,OVC,0.00,WeatherDisplay:10.37,2013-01-03 20:13:00,
2013-01-03 15:14:00,9.4,-1.0,30.05,SSW,213,4.5,4.6,62,0.00,CLR,OVC,0.00,WeatherDisplay:10.37,2013-01-03 20:14:00,
2013-01-03 15:16:00,9.3,-1.1,30.04,SSW,213,4.1,4.6,62,0.00,CLR,OVC,0.00,WeatherDisplay:10.37,2013-01-03 20:16:00,
2013-01-03 15:17:00,9.2,-1.2,30.04,SSW,213,3.7,4.6,62,0.00,CLR,OVC,0.00,WeatherDisplay:10.37,2013-01-03 20:17:00,
2013-01-03 15:18:00,9.2,-1.2,30.04,SSW,213,4.5,5.0,62,0.00,CLR,OVC,0.00,WeatherDisplay:10.37,2013-01-03 20:18:00,
2013-01-03 15:19:00,9.2,-1.2,30.04,SSW,212,4.8,5.0,62,0.00,CLR,OVC,0.00,WeatherDisplay:10.37,2013-01-03 20:19:00,
2013-01-03 15:21:00,9.2,-1.2,30.04,SSW,211,4.4,5.8,62,0.00,CLR,OVC,0.00,WeatherDisplay:10.37,2013-01-03 20:21:00,
2013-01-03 15:22:00,9.2,-1.2,30.04,SSW,210,4.1,4.6,62,0.00,CLR,OVC,0.00,WeatherDisplay:10.37,2013-01-03 20:22:00,
2013-01-03 15:23:00,9.3,-0.8,30.04,SSW,210,4.3,5.8,63,0.00,CLR,OVC,0.00,WeatherDisplay:10.37,2013-01-03 20:23:00,
2013-01-03 15:24:00,9.3,-0.8,30.04,SSW,210,3.6,5.0,63,0.00,CLR,OVC,0.00,WeatherDisplay:10.37,2013-01-03 20:24:00,
2013-01-03 15:26:00,9.4,-1.0,30.04,SSW,210,3.8,4.6,62,0.00,CLR,OVC,0.00,WeatherDisplay:10.37,2013-01-03 20:26:00,
2013-01-03 15:27:00,9.4,-0.7,30.04,SSW,210,3.8,4.6,63,0.00,CLR,OVC,0.00,WeatherDisplay:10.37,2013-01-03 20:27:00,
2013-01-03 15:28:00,9.5,-0.6,30.04,SSW,205,3.5,4.6,63,0.00,CLR,OVC,0.00,WeatherDisplay:10.37,2013-01-03 20:28:00,
2013-01-03 15:29:00,9.6,-0.8,30.04,SSW,205,3.8,4.6,62,0.00,CLR,OVC,0.00,WeatherDisplay:10.37,2013-01-03 20:29:00,
2013-01-03 15:31:00,9.6,-0.5,30.04,SSW,203,4.9,5.8,63,0.00,CLR,OVC,0.00,WeatherDisplay:10.37,2013-01-03 20:31:00,
2013-01-03 15:32:00,9.7,-0.7,30.04,SSW,203,2.8,5.8,62,0.00,CLR,OVC,0.00,WeatherDisplay:10.37,2013-01-03 20:32:00,
2013-01-03 15:34:00,9.8,-0.6,30.03,SSW,203,3.4,5.8,62,0.00,CLR,OVC,0.00,WeatherDisplay:10.37,2013-01-03 20:34:00,
2013-01-03 15:35:00,9.8,-0.6,30.03,SSW,203,2.6,3.5,62,0.00,CLR,OVC,0.00,WeatherDisplay:10.37,2013-01-03 20:35:00,
2013-01-03 15:36:00,10.0,-0.4,30.03,SSW,203,3.9,5.0,62,0.00,CLR,OVC,0.00,WeatherDisplay:10.37,2013-01-03 20:36:00,
2013-01-03 15:37:00,10.0,-0.4,30.04,SSW,203,3.6,4.6,62,0.00,CLR,OVC,0.00,WeatherDisplay:10.37,2013-01-03 20:37:00,
2013-01-03 15:39:00,10.0,-0.4,30.03,SSW,203,2.9,3.5,62,0.00,CLR,OVC,0.00,WeatherDisplay:10.37,2013-01-03 20:39:00,
2013-01-03 15:40:00,9.8,-1.0,30.03,SSW,203,3.5,3.5,61,0.00,CLR,OVC,0.00,WeatherDisplay:10.37,2013-01-03 20:40:00,
2013-01-03 15:41:00,9.6,-1.2,30.03,SSW,203,3.2,3.5,61,0.00,CLR,OVC,0.00,WeatherDisplay:10.37,2013-01-03 20:41:00,
2013-01-03 15:42:00,9.5,-1.3,30.04,SSW,203,2.9,3.5,61,0.00,CLR,OVC,0.00,WeatherDisplay:10.37,2013-01-03 20:42:00,
2013-01-03 15:44:00,9.4,-1.4,30.03,SSW,203,2.9,3.5,61,0.00,CLR,OVC,0.00,WeatherDisplay:10.37,2013-01-03 20:44:00,
2013-01-03 15:45:00,9.2,-1.5,30.04,SSW,203,3.4,4.0,61,0.00,CLR,OVC,0.00,WeatherDisplay:10.37,2013-01-03 20:45:00,
2013-01-03 15:46:00,9.0,-1.4,30.04,SSW,203,3.5,4.0,62,0.00,CLR,OVC,0.00,WeatherDisplay:10.37,2013-01-03 20:46:00,
2013-01-03 15:47:00,8.9,-1.5,30.03,SSW,203,3.3,4.6,62,0.00,CLR,OVC,0.00,WeatherDisplay:10.37,2013-01-03 20:47:00,
2013-01-03 15:49:00,8.9,-1.5,30.03,SSW,203,3.3,3.5,62,0.00,CLR,OVC,0.00,WeatherDisplay:10.37,2013-01-03 20:49:00,
2013-01-03 15:50:00,8.8,-1.6,30.03,SSW,203,3.1,4.0,62,0.00,CLR,OVC,0.00,WeatherDisplay:10.37,2013-01-03 20:50:00,
2013-01-03 15:51:00,8.8,-1.6,30.03,SSW,203,2.9,3.5,62,0.00,CLR,OVC,0.00,WeatherDisplay:10.37,2013-01-03 20:51:00,
2013-01-03 15:52:00,8.7,-1.7,30.03,SSW,203,2.8,3.5,62,0.00,CLR,OVC,0.00,WeatherDisplay:10.37,2013-01-03 20:52:00,
2013-01-03 15:54:00,8.7,-1.3,30.03,SSW,203,3.3,4.0,63,0.00,CLR,OVC,0.00,WeatherDisplay:10.37,2013-01-03 20:54:00,
2013-01-03 15:56:00,8.7,-1.3,30.03,SSW,203,2.8,3.5,63,0.00,CLR,OVC,0.00,WeatherDisplay:10.37,2013-01-03 20:56:00,
2013-01-03 15:57:00,8.7,-1.3,30.03,SSW,203,2.8,3.5,63,0.00,CLR,OVC,0.00,WeatherDisplay:10.37,2013-01-03 20:57:00,
2013-01-03 15:59:00,8.7,-1.3,30.03,SSW,203,1.9,3.5,63,0.00,CLR,OVC,0.00,WeatherDisplay:10.37,2013-01-03 20:59:00,
2013-01-03 16:01:00,8.7,-1.3,30.03,SSW,203,1.8,3.5,63,0.00,CLR,OVC,0.00,WeatherDisplay:10.37,2013-01-03 21:01:00,
2013-01-03 16:02:00,8.7,-1.3,30.03,SSW,203,1.4,2.3,63,0.00,CLR,OVC,0.00,WeatherDisplay:10.37,2013-01-03 21:02:00,
2013-01-03 16:05:00,8.7,-1.3,30.03,SSW,203,2.5,3.5,63,0.00,CLR,OVC,0.00,WeatherDisplay:10.37,2013-01-03 21:05:00,
2013-01-03 16:06:00,8.7,-1.3,30.03,SSW,203,2.0,3.5,63,0.00,CLR,OVC,0.00,WeatherDisplay:10.37,2013-01-03 21:06:00,
2013-01-03 16:08:00,8.8,-0.9,30.03,SSW,203,2.5,3.5,64,0.00,CLR,OVC,0.00,WeatherDisplay:10.37,2013-01-03 21:08:00,
2013-01-03 16:10:00,8.9,-0.8,30.03,SSW,203,2.6,3.5,64,0.00,CLR,OVC,0.00,WeatherDisplay:10.37,2013-01-03 21:10:00,
2013-01-03 16:11:00,9.0,-0.7,30.03,SSW,203,2.5,3.5,64,0.00,CLR,OVC,0.00,WeatherDisplay:10.37,2013-01-03 21:11:00,
2013-01-03 16:13:00,9.0,-1.1,30.02,SSW,203,2.4,3.5,63,0.00,CLR,OVC,0.00,WeatherDisplay:10.37,2013-01-03 21:13:00,
2013-01-03 16:15:00,9.0,-0.7,30.02,SSW,203,1.1,2.3,64,0.00,CLR,OVC,0.00,WeatherDisplay:10.37,2013-01-03 21:15:00,
2013-01-03 16:16:00,9.0,-0.7,30.02,SSW,203,2.1,3.5,64,0.00,CLR,OVC,0.00,WeatherDisplay:10.37,2013-01-03 21:16:00,
2013-01-03 16:17:00,9.0,-0.7,30.02,SSW,203,2.1,3.5,64,0.00,CLR,OVC,0.00,WeatherDisplay:10.37,2013-01-03 21:17:00,
2013-01-03 16:18:00,9.0,-1.1,30.02,SSW,203,1.8,3.5,63,0.00,CLR,OVC,0.00,WeatherDisplay:10.37,2013-01-03 21:18:00,
2013-01-03 16:20:00,9.1,-0.6,30.02,SSW,203,1.9,3.5,64,0.00,CLR,OVC,0.00,WeatherDisplay:10.37,2013-01-03 21:20:00,
2013-01-03 16:21:00,9.2,-0.5,30.02,SSW,203,2.5,3.5,64,0.00,CLR,OVC,0.00,WeatherDisplay:10.37,2013-01-03 21:21:00,
2013-01-03 16:22:00,9.2,-0.5,30.02,SSW,203,2.5,3.5,64,0.00,CLR,OVC,0.00,WeatherDisplay:10.37,2013-01-03 21:22:00,
2013-01-03 16:23:00,9.2,-0.5,30.02,SSW,203,3.1,3.5,64,0.00,CLR,OVC,0.00,WeatherDisplay:10.37,2013-01-03 21:23:00,
2013-01-03 16:25:00,9.4,-0.3,30.02,SSW,203,2.3,3.5,64,0.00,CLR,OVC,0.00,WeatherDisplay:10.37,2013-01-03 21:25:00,
2013-01-03 16:27:00,9.4,0.0,30.02,SSW,203,2.1,3.5,65,0.00,CLR,OVC,0.00,WeatherDisplay:10.37,2013-01-03 21:27:00,
2013-01-03 16:28:00,9.5,-0.2,30.02,SSW,203,2.5,3.5,64,0.00,CLR,OVC,0.00,WeatherDisplay:10.37,2013-01-03 21:28:00,
2013-01-03 16:31:00,9.6,-0.1,30.02,SSW,203,2.7,4.0,64,0.00,CLR,OVC,0.00,WeatherDisplay:10.37,2013-01-03 21:31:00,
2013-01-03 16:32:00,9.6,-0.1,30.02,SSW,203,3.1,4.0,64,0.00,CLR,OVC,0.00,WeatherDisplay:10.37,2013-01-03 21:32:00,
2013-01-03 16:33:00,9.6,-0.1,30.02,SSW,203,3.5,4.0,64,0.00,CLR,OVC,0.00,WeatherDisplay:10.37,2013-01-03 21:33:00,
2013-01-03 16:36:00,9.6,-0.1,30.02,SSW,203,3.1,3.5,64,0.00,CLR,OVC,0.00,WeatherDisplay:10.37,2013-01-03 21:36:00,
2013-01-03 16:37:00,9.6,-0.5,30.02,SSW,203,3.4,4.0,63,0.00,CLR,OVC,0.00,WeatherDisplay:10.37,2013-01-03 21:37:00,
2013-01-03 16:38:00,9.6,-0.5,30.02,SSW,203,3.4,3.5,63,0.00,CLR,OVC,0.00,WeatherDisplay:10.37,2013-01-03 21:38:00,
2013-01-03 16:42:00,9.5,-0.6,30.02,SSW,203,3.2,4.0,63,0.00,CLR,OVC,0.00,WeatherDisplay:10.37,2013-01-03 21:42:00,
2013-01-03 16:44:00,9.4,-0.7,30.02,SSW,203,3.2,4.0,63,0.00,CLR,OVC,0.00,WeatherDisplay:10.37,2013-01-03 21:44:00,
2013-01-03 16:45:00,9.4,-0.7,30.02,SSW,203,3.0,4.0,63,0.00,CLR,OVC,0.00,WeatherDisplay:10.37,2013-01-03 21:45:00,
2013-01-03 16:47:00,9.3,-0.4,30.02,SSW,203,3.5,4.0,64,0.00,CLR,OVC,0.00,WeatherDisplay:10.37,2013-01-03 21:47:00,
2013-01-03 16:49:00,9.3,-0.8,30.02,SSW,203,3.1,4.0,63,0.00,CLR,OVC,0.00,WeatherDisplay:10.37,2013-01-03 21:49:00,
2013-01-03 16:50:00,9.3,-0.4,30.02,SSW,203,3.1,3.5,64,0.00,CLR,OVC,0.00,WeatherDisplay:10.37,2013-01-03 21:50:00,
2013-01-03 16:52:00,9.3,-0.4,30.02,SSW,203,1.8,3.5,64,0.00,CLR,OVC,0.00,WeatherDisplay:10.37,2013-01-03 21:52:00,
2013-01-03 16:54:00,9.4,-0.3,30.02,SSW,203,2.5,3.5,64,0.00,CLR,OVC,0.00,WeatherDisplay:10.37,2013-01-03 21:54:00,
2013-01-03 16:55:00,9.4,-0.3,30.02,SSW,203,2.3,3.5,64,0.00,CLR,OVC,0.00,WeatherDisplay:10.37,2013-01-03 21:55:00,
2013-01-03 16:58:00,9.4,-0.3,30.03,SSW,203,2.1,3.5,64,0.00,CLR,OVC,0.00,WeatherDisplay:10.37,2013-01-03 21:58:00,
2013-01-03 16:59:00,9.4,-0.3,30.02,SSW,203,2.0,2.3,64,0.00,CLR,OVC,0.00,WeatherDisplay:10.37,2013-01-03 21:59:00,
2013-01-03 17:00:00,9.4,-0.3,30.02,SSW,203,1.9,2.3,64,0.00,CLR,OVC,0.00,WeatherDisplay:10.37,2013-01-03 22:00:00,
2013-01-03 17:03:00,9.5,-0.2,30.02,SSW,203,1.7,2.3,64,0.00,CLR,OVC,0.00,WeatherDisplay:10.37,2013-01-03 22:03:00,
2013-01-03 17:04:00,9.4,-0.3,30.02,SSW,203,1.4,2.3,64,0.00,CLR,OVC,0.00,WeatherDisplay:10.37,2013-01-03 22:04:00,
2013-01-03 17:05:00,9.4,-0.3,30.02,SSW,203,1.4,2.3,64,0.00,CLR,OVC,0.00,WeatherDisplay:10.37,2013-01-03 22:05:00,
2013-01-03 17:08:00,9.5,-0.2,30.02,SSW,203,2.2,3.5,64,0.00,CLR,OVC,0.00,WeatherDisplay:10.37,2013-01-03 22:08:00,
2013-01-03 17:09:00,9.5,-0.2,30.02,SSW,203,3.3,3.5,64,0.00,CLR,OVC,0.00,WeatherDisplay:10.37,2013-01-03 22:09:00,
2013-01-03 17:10:00,9.5,-0.2,30.02,SSW,203,3.3,4.6,64,0.00,CLR,OVC,0.00,WeatherDisplay:10.37,2013-01-03 22:10:00,
2013-01-03 17:14:00,9.9,0.1,30.02,SSW,201,3.6,5.8,64,0.00,CLR,OVC,0.00,WeatherDisplay:10.37,2013-01-03 22:14:00,
2013-01-03 17:15:00,10.0,0.6,30.02,SSW,201,3.5,5.0,65,0.00,CLR,OVC,0.00,WeatherDisplay:10.37,2013-01-03 22:15:00,
2013-01-03 17:19:00,10.4,0.6,30.02,South,187,4.6,6.9,64,0.00,CLR,OVC,0.00,WeatherDisplay:10.37,2013-01-03 22:19:00,
2013-01-03 17:20:00,10.5,0.7,30.02,South,187,4.2,5.8,64,0.00,CLR,OVC,0.00,WeatherDisplay:10.37,2013-01-03 22:20:00,
2013-01-03 17:24:00,10.9,0.8,30.02,South,176,3.6,4.6,63,0.00,CLR,OVC,0.00,WeatherDisplay:10.37,2013-01-03 22:24:00,
2013-01-03 17:25:00,10.9,0.8,30.02,South,176,3.6,4.6,63,0.00,CLR,OVC,0.00,WeatherDisplay:10.37,2013-01-03 22:25:00,
2013-01-03 17:30:00,11.0,0.9,30.01,South,176,1.8,2.3,63,0.00,CLR,OVC,0.00,WeatherDisplay:10.37,2013-01-03 22:30:00,
2013-01-03 17:35:00,10.7,0.6,30.01,South,176,2.3,3.5,63,0.00,CLR,OVC,0.00,WeatherDisplay:10.37,2013-01-03 22:35:00,
2013-01-03 17:40:00,10.6,0.5,30.02,South,176,0.3,2.3,63,0.00,CLR,OVC,0.00,WeatherDisplay:10.37,2013-01-03 22:40:00,
2013-01-03 17:45:00,10.6,0.5,30.01,South,176,1.7,2.3,63,0.00,CLR,OVC,0.00,WeatherDisplay:10.37,2013-01-03 22:45:00,
2013-01-03 17:46:00,10.5,0.4,30.01,South,176,1.9,2.3,63,0.00,CLR,OVC,0.00,WeatherDisplay:10.37,2013-01-03 22:46:00,
2013-01-03 17:50:00,10.6,0.5,30.01,South,176,1.6,3.5,63,0.00,CLR,OVC,0.00,WeatherDisplay:10.37,2013-01-03 22:50:00,
2013-01-03 17:51:00,10.5,0.7,30.01,South,176,1.4,3.5,64,0.00,CLR,OVC,0.00,WeatherDisplay:10.37,2013-01-03 22:51:00,
2013-01-03 17:52:00,10.5,0.7,30.01,South,176,1.7,3.5,64,0.00,CLR,OVC,0.00,WeatherDisplay:10.37,2013-01-03 22:52:00,
2013-01-03 17:55:00,10.6,0.8,30.01,South,176,1.7,2.3,64,0.00,CLR,OVC,0.00,WeatherDisplay:10.37,2013-01-03 22:55:00,
2013-01-03 17:56:00,10.6,0.8,30.01,South,176,1.7,2.3,64,0.00,CLR,OVC,0.00,WeatherDisplay:10.37,2013-01-03 22:56:00,
2013-01-03 17:57:00,10.6,0.8,30.01,South,176,1.2,2.3,64,0.00,CLR,OVC,0.00,WeatherDisplay:10.37,2013-01-03 22:57:00,
2013-01-03 18:00:00,10.7,0.9,30.01,South,176,0.5,1.2,64,0.00,CLR,OVC,0.00,WeatherDisplay:10.37,2013-01-03 23:00:00,
2013-01-03 18:01:00,10.6,1.1,30.01,South,176,0.5,1.2,65,0.00,CLR,OVC,0.00,WeatherDisplay:10.37,2013-01-03 23:01:00,
2013-01-03 18:02:00,10.7,0.9,30.01,South,176,1.2,2.3,64,0.00,CLR,OVC,0.00,WeatherDisplay:10.37,2013-01-03 23:02:00,
2013-01-03 18:06:00,10.7,0.9,30.01,South,176,2.2,3.5,64,0.00,CLR,OVC,0.00,WeatherDisplay:10.37,2013-01-03 23:06:00,
2013-01-03 18:07:00,10.7,0.9,30.01,South,176,2.1,3.5,64,0.00,CLR,OVC,0.00,WeatherDisplay:10.37,2013-01-03 23:07:00,
2013-01-03 18:11:00,10.7,0.9,30.01,South,176,2.6,5.0,64,0.00,CLR,OVC,0.00,WeatherDisplay:10.37,2013-01-03 23:11:00,
2013-01-03 18:12:00,10.8,1.3,30.01,South,176,3.2,4.6,65,0.00,CLR,OVC,0.00,WeatherDisplay:10.37,2013-01-03 23:12:00,
2013-01-03 18:16:00,11.0,1.2,30.01,South,176,3.5,4.6,64,0.00,CLR,OVC,0.00,WeatherDisplay:10.37,2013-01-03 23:16:00,
2013-01-03 18:17:00,11.0,1.2,30.01,South,176,3.1,4.6,64,0.00,CLR,OVC,0.00,WeatherDisplay:10.37,2013-01-03 23:17:00,
2013-01-03 18:21:00,11.3,1.5,30.01,South,176,2.7,4.6,64,0.00,CLR,OVC,0.00,WeatherDisplay:10.37,2013-01-03 23:21:00,
2013-01-03 18:22:00,11.3,1.5,30.00,South,176,3.0,4.0,64,0.00,CLR,OVC,0.00,WeatherDisplay:10.37,2013-01-03 23:22:00,
2013-01-03 18:26:00,11.5,1.7,30.00,South,176,4.9,8.1,64,0.00,CLR,OVC,0.00,WeatherDisplay:10.37,2013-01-03 23:26:00,
2013-01-03 18:27:00,11.5,1.7,30.01,South,176,4.5,8.1,64,0.00,CLR,OVC,0.00,WeatherDisplay:10.37,2013-01-03 23:27:00,
2013-01-03 18:31:00,11.8,1.6,30.00,South,177,5.2,6.0,63,0.00,CLR,OVC,0.00,WeatherDisplay:10.37,2013-01-03 23:31:00,
2013-01-03 18:32:00,11.8,1.6,30.00,South,179,6.0,8.1,63,0.00,CLR,OVC,0.00,WeatherDisplay:10.37,2013-01-03 23:32:00,
2013-01-03 18:36:00,11.9,1.7,30.00,South,187,4.6,6.9,63,0.00,CLR,OVC,0.00,WeatherDisplay:10.37,2013-01-03 23:36:00,
2013-01-03 18:37:00,11.8,1.6,30.00,South,187,4.6,6.0,63,0.00,CLR,OVC,0.00,WeatherDisplay:10.37,2013-01-03 23:37:00,
2013-01-03 18:41:00,11.6,1.4,30.00,South,187,5.1,5.8,63,0.00,CLR,OVC,0.00,WeatherDisplay:10.37,2013-01-03 23:41:00,
2013-01-03 18:42:00,11.6,1.4,30.00,South,187,4.4,5.8,63,0.00,CLR,OVC,0.00,WeatherDisplay:10.37,2013-01-03 23:42:00,
2013-01-03 18:46:00,11.5,1.3,30.00,South,187,5.5,6.9,63,0.00,CLR,OVC,0.00,WeatherDisplay:10.37,2013-01-03 23:46:00,
2013-01-03 18:47:00,11.5,1.3,30.00,South,189,5.7,8.1,63,0.00,CLR,OVC,0.00,WeatherDisplay:10.37,2013-01-03 23:47:00,
2013-01-03 18:51:00,11.6,1.4,29.99,South,191,6.0,6.9,63,0.00,CLR,OVC,0.00,WeatherDisplay:10.37,2013-01-03 23:51:00,
2013-01-03 18:52:00,11.6,1.8,29.99,South,191,5.1,8.1,64,0.00,CLR,OVC,0.00,WeatherDisplay:10.37,2013-01-03 23:52:00,
2013-01-03 18:56:00,11.8,2.0,29.99,SSE,165,4.7,6.9,64,0.00,CLR,OVC,0.00,WeatherDisplay:10.37,2013-01-03 23:56:00,
2013-01-03 18:57:00,11.8,1.6,29.99,SSE,165,3.1,6.9,63,0.00,CLR,OVC,0.00,WeatherDisplay:10.37,2013-01-03 23:57:00,
2013-01-03 18:58:00,11.8,1.6,29.99,South,184,3.9,8.0,63,0.00,CLR,OVC,0.00,WeatherDisplay:10.37,2013-01-03 23:58:00,
2013-01-03 19:01:00,12.1,1.9,29.99,SSE,162,5.5,8.1,63,0.00,CLR,OVC,0.00,WeatherDisplay:10.37,2013-01-04 00:01:00,
2013-01-03 19:02:00,12.1,1.9,29.99,South,169,5.3,8.1,63,0.00,CLR,OVC,0.00,WeatherDisplay:10.37,2013-01-04 00:02:00,
2013-01-03 19:03:00,12.1,1.9,29.99,South,170,5.7,8.1,63,0.00,CLR,OVC,0.00,WeatherDisplay:10.37,2013-01-04 00:03:00,
2013-01-03 19:07:00,12.3,2.1,29.99,SSW,199,7.6,10.4,63,0.00,CLR,OVC,0.00,WeatherDisplay:10.37,2013-01-04 00:07:00,
2013-01-03 19:08:00,12.3,1.7,29.99,SSW,196,5.5,9.2,62,0.00,CLR,OVC,0.00,WeatherDisplay:10.37,2013-01-04 00:08:00,
2013-01-03 19:12:00,12.3,1.7,29.99,South,184,5.0,6.9,62,0.00,CLR,OVC,0.00,WeatherDisplay:10.37,2013-01-04 00:12:00,
2013-01-03 19:13:00,12.2,1.7,30.00,South,182,5.6,8.1,62,0.00,CLR,OVC,0.00,WeatherDisplay:10.37,2013-01-04 00:13:00,
2013-01-03 19:17:00,12.2,1.7,30.00,SSW,195,5.1,6.9,62,0.00,CLR,OVC,0.00,WeatherDisplay:10.37,2013-01-04 00:17:00,
2013-01-03 19:18:00,12.2,1.7,29.99,SSW,195,5.1,6.9,62,0.00,CLR,OVC,0.00,WeatherDisplay:10.37,2013-01-04 00:18:00,
2013-01-03 19:22:00,12.3,1.7,30.00,South,181,4.5,6.9,62,0.00,CLR,OVC,0.00,WeatherDisplay:10.37,2013-01-04 00:22:00,
2013-01-03 19:23:00,12.3,1.7,30.00,South,178,5.8,8.1,62,0.00,CLR,OVC,0.00,WeatherDisplay:10.37,2013-01-04 00:23:00,
2013-01-03 19:27:00,12.5,1.9,29.99,SSE,161,6.2,9.2,62,0.00,CLR,OVC,0.00,WeatherDisplay:10.37,2013-01-04 00:27:00,
2013-01-03 19:28:00,12.5,1.9,29.99,SSE,161,6.2,9.2,62,0.00,CLR,OVC,0.00,WeatherDisplay:10.37,2013-01-04 00:28:00,
2013-01-03 19:29:00,12.5,1.9,29.99,SSE,163,5.4,8.1,62,0.00,CLR,OVC,0.00,WeatherDisplay:10.37,2013-01-04 00:29:00,
2013-01-03 19:32:00,12.6,2.0,29.99,SSE,167,7.0,9.2,62,0.00,CLR,OVC,0.00,WeatherDisplay:10.37,2013-01-04 00:32:00,
2013-01-03 19:33:00,12.7,2.1,29.99,South,181,6.8,9.2,62,0.00,CLR,OVC,0.00,WeatherDisplay:10.37,2013-01-04 00:33:00,
2013-01-03 19:34:00,12.7,2.1,29.98,SSE,168,6.3,10.4,62,0.00,CLR,OVC,0.00,WeatherDisplay:10.37,2013-01-04 00:34:00,
2013-01-03 19:38:00,12.7,1.8,29.98,SSW,193,4.3,6.9,61,0.00,CLR,OVC,0.00,WeatherDisplay:10.37,2013-01-04 00:38:00,
2013-01-03 19:39:00,12.8,1.9,29.98,South,182,6.4,9.2,61,0.00,CLR,OVC,0.00,WeatherDisplay:10.37,2013-01-04 00:39:00,
2013-01-03 19:43:00,12.9,2.0,29.97,South,173,9.0,13.8,61,0.00,CLR,OVC,0.00,WeatherDisplay:10.37,2013-01-04 00:43:00,
2013-01-03 19:44:00,13.0,2.1,29.98,South,186,10.8,19.6,61,0.00,CLR,OVC,0.00,WeatherDisplay:10.37,2013-01-04 00:44:00,
2013-01-03 19:48:00,13.1,2.2,29.98,South,191,8.7,11.5,61,0.00,CLR,OVC,0.00,WeatherDisplay:10.37,2013-01-04 00:48:00,
2013-01-03 19:49:00,13.2,2.3,29.98,SSW,197,8.1,12.0,61,0.00,CLR,OVC,0.00,WeatherDisplay:10.37,2013-01-04 00:49:00,
2013-01-03 19:53:00,13.1,1.8,29.98,SSW,192,9.7,11.5,60,0.00,CLR,OVC,0.00,WeatherDisplay:10.37,2013-01-04 00:53:00,
2013-01-03 19:54:00,13.0,1.7,29.98,SSW,203,9.6,11.5,60,0.00,CLR,OVC,0.00,WeatherDisplay:10.37,2013-01-04 00:54:00,
2013-01-03 19:58:00,12.8,1.9,29.98,SSW,201,8.1,11.5,61,0.00,CLR,OVC,0.00,WeatherDisplay:10.37,2013-01-04 00:58:00,
2013-01-03 19:59:00,12.8,1.9,29.98,SSW,201,8.2,11.5,61,0.00,CLR,OVC,0.00,WeatherDisplay:10.37,2013-01-04 00:59:00,
2013-01-03 20:03:00,12.6,1.7,29.99,SSW,201,4.8,11.5,61,0.00,CLR,OVC,0.00,WeatherDisplay:10.37,2013-01-04 01:03:00,
2013-01-03 20:04:00,12.6,1.7,29.98,SSW,197,5.0,9.2,61,0.00,CLR,OVC,0.00,WeatherDisplay:10.37,2013-01-04 01:04:00,
2013-01-03 20:08:00,12.4,1.5,29.98,SSW,197,6.6,11.5,61,0.00,CLR,OVC,0.00,WeatherDisplay:10.37,2013-01-04 01:08:00,
2013-01-03 20:09:00,12.4,1.5,29.97,SSW,197,6.3,8.1,61,0.00,CLR,OVC,0.00,WeatherDisplay:10.37,2013-01-04 01:09:00,
2013-01-03 20:13:00,12.2,1.7,29.97,South,177,6.0,10.4,62,0.00,CLR,OVC,0.00,WeatherDisplay:10.37,2013-01-04 01:13:00,
2013-01-03 20:14:00,12.2,1.7,29.97,South,177,5.7,10.4,62,0.00,CLR,OVC,0.00,WeatherDisplay:10.37,2013-01-04 01:14:00,
2013-01-03 20:18:00,12.3,1.7,29.97,South,180,9.3,13.0,62,0.00,CLR,OVC,0.00,WeatherDisplay:10.37,2013-01-04 01:18:00,
2013-01-03 20:19:00,12.3,1.7,29.97,South,182,9.8,13.8,62,0.00,CLR,OVC,0.00,WeatherDisplay:10.37,2013-01-04 01:19:00,
2013-01-03 20:23:00,12.4,2.2,29.97,South,184,7.3,10.4,63,0.00,CLR,OVC,0.00,WeatherDisplay:10.37,2013-01-04 01:23:00,
2013-01-03 20:24:00,12.4,2.2,29.97,SSW,194,7.8,11.5,63,0.00,CLR,OVC,0.00,WeatherDisplay:10.37,2013-01-04 01:24:00,
2013-01-03 20:25:00,12.4,1.8,29.97,SSW,199,7.0,11.5,62,0.00,CLR,OVC,0.00,WeatherDisplay:10.37,2013-01-04 01:25:00,
2013-01-03 20:28:00,12.5,1.9,29.97,South,185,9.6,13.8,62,0.00,CLR,OVC,0.00,WeatherDisplay:10.37,2013-01-04 01:28:00,
2013-01-03 20:29:00,12.5,2.3,29.97,SSW,192,9.6,12.7,63,0.00,CLR,OVC,0.00,WeatherDisplay:10.37,2013-01-04 01:29:00,
2013-01-03 20:30:00,12.6,2.0,29.97,South,184,10.6,14.0,62,0.00,CLR,OVC,0.00,WeatherDisplay:10.37,2013-01-04 01:30:00,
2013-01-03 20:33:00,12.7,2.1,29.97,SSW,193,9.8,11.5,62,0.00,CLR,OVC,0.00,WeatherDisplay:10.37,2013-01-04 01:33:00,
2013-01-03 20:34:00,12.7,2.1,29.97,SSW,208,9.5,13.8,62,0.00,CLR,OVC,0.00,WeatherDisplay:10.37,2013-01-04 01:34:00,
2013-01-03 20:35:00,12.7,2.1,29.97,South,188,8.6,13.0,62,0.00,CLR,OVC,0.00,WeatherDisplay:10.37,2013-01-04 01:35:00,
2013-01-03 20:38:00,12.8,2.2,29.97,SSW,196,12.6,16.1,62,0.00,CLR,OVC,0.00,WeatherDisplay:10.37,2013-01-04 01:38:00,
2013-01-03 20:39:00,12.8,2.6,29.97,SSW,198,12.0,16.1,63,0.00,CLR,OVC,0.00,WeatherDisplay:10.37,2013-01-04 01:39:00,
2013-01-03 20:41:00,12.9,2.7,29.97,SSW,197,11.3,16.0,63,0.00,CLR,OVC,0.00,WeatherDisplay:10.37,2013-01-04 01:41:00,
2013-01-03 20:43:00,12.9,2.7,29.97,South,177,9.2,12.7,63,0.00,CLR,OVC,0.00,WeatherDisplay:10.37,2013-01-04 01:43:00,
2013-01-03 20:44:00,13.0,2.8,29.97,SSW,199,11.1,16.1,63,0.00,CLR,OVC,0.00,WeatherDisplay:10.37,2013-01-04 01:44:00,
2013-01-03 20:46:00,13.0,2.8,29.97,SSW,205,11.0,15.0,63,0.00,CLR,OVC,0.00,WeatherDisplay:10.37,2013-01-04 01:46:00,
2013-01-03 20:48:00,13.1,3.2,29.97,SSW,197,11.5,16.1,64,0.00,CLR,OVC,0.00,WeatherDisplay:10.37,2013-01-04 01:48:00,
2013-01-03 20:49:00,13.1,3.2,29.97,SSW,196,11.5,15.0,64,0.00,CLR,OVC,0.00,WeatherDisplay:10.37,2013-01-04 01:49:00,
2013-01-03 20:51:00,13.1,3.2,29.97,SSW,196,14.4,19.0,64,0.00,CLR,OVC,0.00,WeatherDisplay:10.37,2013-01-04 01:51:00,
2013-01-03 20:54:00,13.2,3.3,29.97,SW,215,13.7,18.4,64,0.00,CLR,OVC,0.00,WeatherDisplay:10.37,2013-01-04 01:54:00,
2013-01-03 20:56:00,13.2,3.3,29.97,SSW,201,13.6,19.6,64,0.00,CLR,OVC,0.00,WeatherDisplay:10.37,2013-01-04 01:56:00,
2013-01-03 20:59:00,13.2,3.6,29.96,SW,215,11.8,16.0,65,0.00,CLR,OVC,0.00,WeatherDisplay:10.37,2013-01-04 01:59:00,
2013-01-03 21:00:00,13.2,3.6,29.96,SSW,211,13.2,15.0,65,0.00,CLR,OVC,0.00,WeatherDisplay:10.37,2013-01-04 02:00:00,
2013-01-03 21:01:00,13.2,3.6,29.96,SSW,197,11.7,17.3,65,0.00,CLR,OVC,0.00,WeatherDisplay:10.37,2013-01-04 02:01:00,
2013-01-03 21:04:00,13.2,4.0,29.96,SSW,193,13.6,16.1,66,0.00,CLR,OVC,0.00,WeatherDisplay:10.37,2013-01-04 02:04:00,
2013-01-03 21:05:00,13.3,4.0,29.96,SSW,208,13.0,21.0,66,0.00,CLR,OVC,0.00,WeatherDisplay:10.37,2013-01-04 02:05:00,
2013-01-03 21:06:00,13.4,4.5,29.96,SSW,199,12.9,13.8,67,0.00,CLR,OVC,0.00,WeatherDisplay:10.37,2013-01-04 02:06:00,
2013-01-03 21:09:00,13.5,4.6,29.96,SSW,213,12.6,17.3,67,0.00,CLR,OVC,0.00,WeatherDisplay:10.37,2013-01-04 02:09:00,
2013-01-03 21:10:00,13.5,4.6,29.96,SSW,209,13.2,19.6,67,0.00,CLR,OVC,0.00,WeatherDisplay:10.37,2013-01-04 02:10:00,
2013-01-03 21:11:00,13.5,4.6,29.96,SW,216,11.3,19.6,67,0.00,CLR,OVC,0.00,WeatherDisplay:10.37,2013-01-04 02:11:00,
2013-01-03 21:14:00,13.6,5.0,29.96,SW,219,13.9,17.0,68,0.00,CLR,OVC,0.00,WeatherDisplay:10.37,2013-01-04 02:14:00,
2013-01-03 21:15:00,13.6,5.0,29.96,SW,215,14.8,16.1,68,0.00,CLR,OVC,0.00,WeatherDisplay:10.37,2013-01-04 02:15:00,
2013-01-03 21:16:00,13.7,5.1,29.96,SSW,213,12.1,15.0,68,0.00,CLR,OVC,0.00,WeatherDisplay:10.37,2013-01-04 02:16:00,
2013-01-03 21:19:00,13.8,5.2,29.96,SSW,212,13.8,19.6,68,0.00,CLR,OVC,0.00,WeatherDisplay:10.37,2013-01-04 02:19:00,
2013-01-03 21:20:00,13.8,5.2,29.96,SW,214,13.5,19.6,68,0.00,CLR,OVC,0.00,WeatherDisplay:10.37,2013-01-04 02:20:00,
2013-01-03 21:22:00,13.9,5.6,29.96,SW,214,13.7,19.6,69,0.00,CLR,OVC,0.00,WeatherDisplay:10.37,2013-01-04 02:22:00,
2013-01-03 21:24:00,13.9,5.3,29.95,SW,221,13.4,17.3,68,0.00,CLR,OVC,0.00,WeatherDisplay:10.37,2013-01-04 02:24:00,
2013-01-03 21:25:00,13.8,5.5,29.95,SW,228,13.1,17.3,69,0.00,CLR,OVC,0.00,WeatherDisplay:10.37,2013-01-04 02:25:00,
2013-01-03 21:27:00,13.7,5.4,29.95,SW,226,10.2,13.8,69,0.00,CLR,OVC,0.00,WeatherDisplay:10.37,2013-01-04 02:27:00,
2013-01-03 21:29:00,13.6,5.3,29.95,SW,219,11.2,12.7,69,0.00,CLR,OVC,0.00,WeatherDisplay:10.37,2013-01-04 02:29:00,
2013-01-03 21:30:00,13.7,5.4,29.95,SW,219,12.0,15.0,69,0.00,CLR,OVC,0.00,WeatherDisplay:10.37,2013-01-04 02:30:00,
2013-01-03 21:32:00,13.6,5.3,29.96,SW,226,11.1,12.0,69,0.00,CLR,OVC,0.00,WeatherDisplay:10.37,2013-01-04 02:32:00,
2013-01-03 21:34:00,13.4,5.1,29.95,SW,214,10.4,12.7,69,0.00,CLR,OVC,0.00,WeatherDisplay:10.37,2013-01-04 02:34:00,
2013-01-03 21:35:00,13.4,5.1,29.95,SW,226,9.7,12.7,69,0.00,CLR,OVC,0.00,WeatherDisplay:10.37,2013-01-04 02:35:00,
2013-01-03 21:37:00,13.3,5.0,29.95,SW,226,10.6,15.0,69,0.00,CLR,OVC,0.00,WeatherDisplay:10.37,2013-01-04 02:37:00,
2013-01-03 21:39:00,13.2,5.2,29.95,SSW,212,14.1,15.0,70,0.00,CLR,OVC,0.00,WeatherDisplay:10.37,2013-01-04 02:39:00,
2013-01-03 21:40:00,13.3,5.6,29.95,SW,217,13.5,19.6,71,0.00,CLR,OVC,0.00,WeatherDisplay:10.37,2013-01-04 02:40:00,
2013-01-03 21:42:00,13.5,5.8,29.95,SW,218,10.6,12.7,71,0.00,CLR,OVC,0.00,WeatherDisplay:10.37,2013-01-04 02:42:00,
2013-01-03 21:44:00,13.5,5.5,29.95,SW,228,12.6,16.1,70,0.00,CLR,OVC,0.00,WeatherDisplay:10.37,2013-01-04 02:44:00,
2013-01-03 21:45:00,13.6,5.6,29.95,SW,224,12.8,15.0,70,0.00,CLR,OVC,0.00,WeatherDisplay:10.37,2013-01-04 02:45:00,
2013-01-03 21:47:00,13.5,5.5,29.95,SW,219,11.9,16.0,70,0.00,CLR,OVC,0.00,WeatherDisplay:10.37,2013-01-04 02:47:00,
2013-01-03 21:49:00,13.5,5.8,29.95,SSW,212,10.8,12.7,71,0.00,CLR,OVC,0.00,WeatherDisplay:10.37,2013-01-04 02:49:00,
2013-01-03 21:50:00,13.5,5.8,29.95,SW,225,10.8,13.0,71,0.00,CLR,OVC,0.00,WeatherDisplay:10.37,2013-01-04 02:50:00,
2013-01-03 21:52:00,13.5,5.8,29.95,SW,215,10.4,13.8,71,0.00,CLR,OVC,0.00,WeatherDisplay:10.37,2013-01-04 02:52:00,
2013-01-03 21:54:00,13.8,6.4,29.95,SSW,207,10.1,10.4,72,0.00,CLR,OVC,0.00,WeatherDisplay:10.37,2013-01-04 02:54:00,
2013-01-03 21:55:00,13.9,6.5,29.94,SSW,206,10.2,13.8,72,0.00,CLR,OVC,0.00,WeatherDisplay:10.37,2013-01-04 02:55:00,
2013-01-03 21:56:00,14.0,6.6,29.94,South,190,7.9,11.5,72,0.00,CLR,OVC,0.00,WeatherDisplay:10.37,2013-01-04 02:56:00,
2013-01-03 21:57:00,14.2,7.1,29.94,South,178,13.2,18.4,73,0.00,CLR,OVC,0.00,WeatherDisplay:10.37,2013-01-04 02:57:00,
2013-01-03 21:59:00,14.8,7.7,29.94,SSW,196,10.4,20.7,73,0.00,CLR,OVC,0.00,WeatherDisplay:10.37,2013-01-04 02:59:00,
2013-01-03 22:00:00,14.9,7.5,29.94,SSW,199,9.5,13.8,72,0.00,CLR,OVC,0.00,WeatherDisplay:10.37,2013-01-04 03:00:00,
2013-01-03 22:01:00,15.0,7.6,29.95,South,190,9.5,14.0,72,0.00,CLR,OVC,0.00,WeatherDisplay:10.37,2013-01-04 03:01:00,
2013-01-03 22:02:00,15.2,8.1,29.94,SSW,199,10.1,15.0,73,0.00,CLR,OVC,0.00,WeatherDisplay:10.37,2013-01-04 03:02:00,
2013-01-03 22:05:00,15.3,7.9,29.94,SSW,211,8.7,11.5,72,0.00,CLR,OVC,0.00,WeatherDisplay:10.37,2013-01-04 03:05:00,
2013-01-03 22:06:00,15.3,7.9,29.95,SSW,208,8.6,11.5,72,0.00,CLR,OVC,0.00,WeatherDisplay:10.37,2013-01-04 03:06:00,
2013-01-03 22:07:00,15.2,7.5,29.94,South,188,6.9,10.4,71,0.00,CLR,OVC,0.00,WeatherDisplay:10.37,2013-01-04 03:07:00,
2013-01-03 22:10:00,15.2,7.4,29.95,SSW,205,7.0,12.0,71,0.00,CLR,OVC,0.00,WeatherDisplay:10.37,2013-01-04 03:10:00,
2013-01-03 22:11:00,15.1,7.4,29.95,SSW,196,8.4,11.5,71,0.00,CLR,OVC,0.00,WeatherDisplay:10.37,2013-01-04 03:11:00,
2013-01-03 22:13:00,15.0,7.6,29.94,SSW,205,11.5,13.8,72,0.00,CLR,OVC,0.00,WeatherDisplay:10.37,2013-01-04 03:13:00,
2013-01-03 22:15:00,15.0,7.6,29.95,SSW,196,8.7,11.5,72,0.00,CLR,OVC,0.00,WeatherDisplay:10.37,2013-01-04 03:15:00,
2013-01-03 22:16:00,15.1,7.7,29.94,SW,216,8.8,10.4,72,0.00,CLR,OVC,0.00,WeatherDisplay:10.37,2013-01-04 03:16:00,
2013-01-03 22:18:00,15.1,7.7,29.94,SSW,201,10.7,13.8,72,0.00,CLR,OVC,0.00,WeatherDisplay:10.37,2013-01-04 03:18:00,
2013-01-03 22:20:00,15.1,7.7,29.94,SSW,205,8.5,11.5,72,0.00,CLR,OVC,0.00,WeatherDisplay:10.37,2013-01-04 03:20:00,
2013-01-03 22:21:00,15.2,7.8,29.94,SW,218,9.7,13.8,72,0.00,CLR,OVC,0.00,WeatherDisplay:10.37,2013-01-04 03:21:00,
2013-01-03 22:23:00,15.1,7.7,29.94,SW,221,8.0,11.5,72,0.00,CLR,OVC,0.00,WeatherDisplay:10.37,2013-01-04 03:23:00,
2013-01-03 22:25:00,15.0,7.6,29.94,SW,226,8.4,11.5,72,0.00,CLR,OVC,0.00,WeatherDisplay:10.37,2013-01-04 03:25:00,
2013-01-03 22:26:00,14.9,7.5,29.94,SW,229,10.5,13.8,72,0.00,CLR,OVC,0.00,WeatherDisplay:10.37,2013-01-04 03:26:00,
2013-01-03 22:28:00,15.0,7.9,29.94,SW,224,9.0,11.5,73,0.00,CLR,OVC,0.00,WeatherDisplay:10.37,2013-01-04 03:28:00,
2013-01-03 22:30:00,14.9,7.5,29.94,SW,214,8.6,11.5,72,0.00,CLR,OVC,0.00,WeatherDisplay:10.37,2013-01-04 03:30:00,
2013-01-03 22:31:00,14.9,7.8,29.94,SSW,208,8.6,11.5,73,0.00,CLR,OVC,0.00,WeatherDisplay:10.37,2013-01-04 03:31:00,
2013-01-03 22:32:00,15.0,7.9,29.94,SSW,197,10.4,13.8,73,0.00,CLR,OVC,0.00,WeatherDisplay:10.37,2013-01-04 03:32:00,
2013-01-03 22:33:00,15.4,8.3,29.93,SSW,204,9.3,11.5,73,0.00,CLR,OVC,0.00,WeatherDisplay:10.37,2013-01-04 03:33:00,
2013-01-03 22:35:00,15.5,8.4,29.93,SW,216,11.0,15.0,73,0.00,CLR,OVC,0.00,WeatherDisplay:10.37,2013-01-04 03:35:00,
2013-01-03 22:36:00,15.6,8.5,29.94,SW,219,13.3,17.3,73,0.00,CLR,OVC,0.00,WeatherDisplay:10.37,2013-01-04 03:36:00,
2013-01-03 22:37:00,15.7,8.6,29.93,SSW,206,10.7,15.0,73,0.00,CLR,OVC,0.00,WeatherDisplay:10.37,2013-01-04 03:37:00,
2013-01-03 22:38:00,15.8,8.7,29.93,SW,222,12.0,15.0,73,0.00,CLR,OVC,0.00,WeatherDisplay:10.37,2013-01-04 03:38:00,
2013-01-03 22:40:00,15.9,8.8,29.93,SW,228,10.7,12.7,73,0.00,CLR,OVC,0.00,WeatherDisplay:10.37,2013-01-04 03:40:00,
2013-01-03 22:41:00,15.8,8.4,29.93,SSW,211,11.8,16.1,72,0.00,CLR,OVC,0.00,WeatherDisplay:10.37,2013-01-04 03:41:00,
2013-01-03 22:42:00,15.9,8.8,29.93,SW,218,12.1,15.0,73,0.00,CLR,OVC,0.00,WeatherDisplay:10.37,2013-01-04 03:42:00,
2013-01-03 22:43:00,15.9,8.8,29.93,SW,227,12.3,13.8,73,0.00,CLR,OVC,0.00,WeatherDisplay:10.37,2013-01-04 03:43:00,
2013-01-03 22:45:00,16.0,8.9,29.93,SW,222,11.9,16.1,73,0.00,CLR,OVC,0.00,WeatherDisplay:10.37,2013-01-04 03:45:00,
2013-01-03 22:46:00,15.8,8.7,29.93,SW,220,14.2,18.4,73,0.00,CLR,OVC,0.00,WeatherDisplay:10.37,2013-01-04 03:46:00,
2013-01-03 22:47:00,15.9,8.8,29.93,WSW,240,11.0,15.0,73,0.00,CLR,OVC,0.00,WeatherDisplay:10.37,2013-01-04 03:47:00,
2013-01-03 22:48:00,15.9,8.8,29.93,SW,214,13.5,17.3,73,0.00,CLR,OVC,0.00,WeatherDisplay:10.37,2013-01-04 03:48:00,
2013-01-03 22:50:00,16.0,8.9,29.93,SSW,203,11.5,18.4,73,0.00,CLR,OVC,0.00,WeatherDisplay:10.37,2013-01-04 03:50:00,
2013-01-03 22:51:00,16.1,9.0,29.93,SSW,200,9.2,12.7,73,0.00,CLR,OVC,0.00,WeatherDisplay:10.37,2013-01-04 03:51:00,
2013-01-03 22:52:00,16.2,9.1,29.92,SSW,207,11.6,14.0,73,0.00,CLR,OVC,0.00,WeatherDisplay:10.37,2013-01-04 03:52:00,
2013-01-03 22:53:00,16.3,9.2,29.92,South,188,12.1,19.6,73,0.00,CLR,OVC,0.00,WeatherDisplay:10.37,2013-01-04 03:53:00,
2013-01-03 22:55:00,16.5,9.4,29.92,SW,214,14.6,19.6,73,0.00,CLR,OVC,0.00,WeatherDisplay:10.37,2013-01-04 03:55:00,
2013-01-03 22:56:00,16.6,9.4,29.92,SW,217,13.9,18.4,73,0.00,CLR,OVC,0.00,WeatherDisplay:10.37,2013-01-04 03:56:00,
2013-01-03 22:57:00,16.7,9.5,29.92,SSW,212,9.9,18.4,73,0.00,CLR,OVC,0.00,WeatherDisplay:10.37,2013-01-04 03:57:00,
2013-01-03 22:58:00,16.7,9.5,29.92,SSW,200,11.7,14.0,73,0.00,CLR,OVC,0.00,WeatherDisplay:10.37,2013-01-04 03:58:00,
2013-01-03 23:00:00,16.7,9.2,29.92,SW,217,11.0,17.3,72,0.00,CLR,OVC,0.00,WeatherDisplay:10.37,2013-01-04 04:00:00,
2013-01-03 23:01:00,16.7,9.2,29.92,SSW,210,11.6,17.3,72,0.00,CLR,OVC,0.00,WeatherDisplay:10.37,2013-01-04 04:01:00,
2013-01-03 23:03:00,16.7,9.5,29.92,SSW,212,15.5,21.9,73,0.00,CLR,OVC,0.00,WeatherDisplay:10.37,2013-01-04 04:03:00,
2013-01-03 23:05:00,16.7,9.2,29.92,SW,229,11.3,13.8,72,0.00,CLR,OVC,0.00,WeatherDisplay:10.37,2013-01-04 04:05:00,
2013-01-03 23:06:00,16.6,9.1,29.92,SW,228,11.2,12.7,72,0.00,CLR,OVC,0.00,WeatherDisplay:10.37,2013-01-04 04:06:00,
2013-01-03 23:08:00,16.4,8.9,29.92,SW,220,9.8,12.7,72,0.00,CLR,OVC,0.00,WeatherDisplay:10.37,2013-01-04 04:08:00,
2013-01-03 23:11:00,16.1,9.0,29.92,SW,223,11.5,16.1,73,0.00,CLR,OVC,0.00,WeatherDisplay:10.37,2013-01-04 04:11:00,
2013-01-03 23:13:00,16.0,8.9,29.92,SSW,212,9.8,12.7,73,0.00,CLR,OVC,0.00,WeatherDisplay:10.37,2013-01-04 04:13:00,
2013-01-03 23:16:00,16.2,9.1,29.92,SSW,196,9.1,12.0,73,0.00,CLR,OVC,0.00,WeatherDisplay:10.37,2013-01-04 04:16:00,
2013-01-03 23:18:00,16.3,9.2,29.91,SSW,197,9.9,13.0,73,0.00,CLR,OVC,0.00,WeatherDisplay:10.37,2013-01-04 04:18:00,
2013-01-03 23:21:00,16.6,9.4,29.91,SW,214,13.6,18.4,73,0.00,CLR,OVC,0.00,WeatherDisplay:10.37,2013-01-04 04:21:00,
2013-01-03 23:23:00,16.8,9.6,29.91,SW,215,13.8,17.3,73,0.00,CLR,OVC,0.00,WeatherDisplay:10.37,2013-01-04 04:23:00,
2013-01-03 23:26:00,16.9,9.7,29.91,SSW,204,12.8,19.6,73,0.00,CLR,OVC,0.00,WeatherDisplay:10.37,2013-01-04 04:26:00,
2013-01-03 23:27:00,16.9,10.0,29.91,SSW,204,12.4,17.3,74,0.00,CLR,OVC,0.00,WeatherDisplay:10.37,2013-01-04 04:27:00,
2013-01-03 23:28:00,17.0,10.1,29.91,SSW,211,12.3,17.3,74,0.00,CLR,OVC,0.00,WeatherDisplay:10.37,2013-01-04 04:28:00,
2013-01-03 23:31:00,17.2,10.0,29.91,SW,216,16.7,19.6,73,0.00,CLR,OVC,0.00,WeatherDisplay:10.37,2013-01-04 04:31:00,
2013-01-03 23:32:00,17.2,10.0,29.91,SW,217,17.0,24.2,73,0.00,CLR,OVC,0.00,WeatherDisplay:10.37,2013-01-04 04:32:00,
2013-01-03 23:33:00,17.1,9.9,29.91,SW,220,15.1,18.4,73,0.00,CLR,OVC,0.00,WeatherDisplay:10.37,2013-01-04 04:33:00,
2013-01-03 23:36:00,17.0,9.8,29.90,SSW,209,12.8,16.1,73,0.00,CLR,OVC,0.00,WeatherDisplay:10.37,2013-01-04 04:36:00,
2013-01-03 23:37:00,17.0,9.8,29.90,SSW,204,12.9,15.0,73,0.00,CLR,OVC,0.00,WeatherDisplay:10.37,2013-01-04 04:37:00,
2013-01-03 23:38:00,16.9,9.7,29.90,SSW,202,11.6,16.1,73,0.00,CLR,OVC,0.00,WeatherDisplay:10.37,2013-01-04 04:38:00,
2013-01-03 23:39:00,16.9,9.7,29.90,SSW,200,12.3,17.3,73,0.00,CLR,OVC,0.00,WeatherDisplay:10.37,2013-01-04 04:39:00,
2013-01-03 23:42:00,17.0,10.1,29.90,SSW,205,13.2,18.4,74,0.00,CLR,OVC,0.00,WeatherDisplay:10.37,2013-01-04 04:42:00,
2013-01-03 23:43:00,17.1,10.2,29.90,SSW,210,15.3,19.6,74,0.00,CLR,OVC,0.00,WeatherDisplay:10.37,2013-01-04 04:43:00,
2013-01-03 23:44:00,17.2,10.3,29.90,SSW,202,15.8,19.6,74,0.00,CLR,OVC,0.00,WeatherDisplay:10.37,2013-01-04 04:44:00,
2013-01-03 23:47:00,17.3,10.4,29.90,SW,221,14.4,21.9,74,0.00,CLR,OVC,0.00,WeatherDisplay:10.37,2013-01-04 04:47:00,
2013-01-03 23:49:00,17.3,10.1,29.90,SSW,199,12.5,16.1,73,0.00,CLR,OVC,0.00,WeatherDisplay:10.37,2013-01-04 04:49:00,
2013-01-03 23:52:00,17.2,10.3,29.90,SSW,202,12.1,17.3,74,0.00,CLR,OVC,0.00,WeatherDisplay:10.37,2013-01-04 04:52:00,
2013-01-03 23:54:00,17.3,10.4,29.90,SSW,200,14.1,19.6,74,0.00,CLR,OVC,0.00,WeatherDisplay:10.37,2013-01-04 04:54:00,
2013-01-03 23:57:00,17.3,10.4,29.90,SSW,194,13.0,18.4,74,0.00,CLR,OVC,0.00,WeatherDisplay:10.37,2013-01-04 04:57:00,
2013-01-03 23:59:00,17.4,10.5,29.90,SSW,206,15.2,18.4,74,0.00,CLR,OVC,0.00,WeatherDisplay:10.37,2013-01-04 04:59:00,